GEFSNGP_prec_meanprecacc_210.txt.gz
Total_Precipitation_Accumulation
0.25 0.21 0.29 0.35 0.33 0.35 0.46 0.46 0.36 0.20 0.15 0.18 0.18 0.18 0.18 0.16 0.13 0.10 0.10 0.08 0.08 0.10 0.13 0.14 0.14 0.14 0.16 0.21 0.30 0.48 0.70 0.89 0.90 0.85 0.93 0.98 0.98 1.05 1.12 1.18 1.25 1.38 1.49 1.62
0.21 0.12 0.18 0.24 0.19 0.21 0.24 0.25 0.22 0.17 0.18 0.16 0.16 0.15 0.16 0.15 0.14 0.13 0.12 0.11 0.08 0.09 0.12 0.14 0.14 0.14 0.16 0.18 0.25 0.38 0.55 0.75 0.87 0.85 0.90 0.98 0.97 1.03 1.11 1.17 1.23 1.36 1.41 1.43
0.35 0.13 0.31 0.42 0.25 0.22 0.21 0.21 0.22 0.24 0.23 0.16 0.16 0.16 0.16 0.15 0.15 0.16 0.16 0.13 0.11 0.11 0.13 0.14 0.14 0.15 0.18 0.18 0.20 0.29 0.43 0.62 0.77 0.79 0.80 0.86 0.89 0.98 1.07 1.17 1.16 1.21 1.26 1.24
0.59 0.42 0.70 0.41 0.16 0.18 0.23 0.24 0.23 0.24 0.21 0.18 0.18 0.19 0.17 0.15 0.16 0.17 0.17 0.16 0.15 0.14 0.14 0.14 0.13 0.14 0.16 0.17 0.19 0.24 0.35 0.51 0.70 0.75 0.74 0.74 0.79 0.84 0.94 1.06 1.12 1.09 1.09 1.08
0.91 0.64 0.39 0.19 0.11 0.17 0.28 0.31 0.23 0.18 0.14 0.14 0.15 0.15 0.16 0.14 0.11 0.12 0.14 0.15 0.15 0.17 0.18 0.17 0.15 0.15 0.17 0.19 0.19 0.23 0.35 0.48 0.61 0.72 0.72 0.68 0.74 0.77 0.82 0.88 0.98 0.97 0.96 1.02
1.11 0.79 0.40 0.21 0.09 0.11 0.24 0.37 0.20 0.13 0.11 0.12 0.16 0.21 0.18 0.13 0.08 0.06 0.08 0.10 0.11 0.13 0.15 0.17 0.17 0.17 0.19 0.23 0.23 0.26 0.39 0.49 0.55 0.64 0.66 0.63 0.69 0.76 0.77 0.79 0.85 0.88 0.84 0.89
0.93 0.72 0.29 0.14 0.09 0.13 0.35 0.41 0.18 0.12 0.11 0.12 0.19 0.22 0.15 0.09 0.08 0.06 0.06 0.08 0.09 0.11 0.13 0.16 0.18 0.19 0.20 0.23 0.26 0.29 0.38 0.45 0.50 0.56 0.60 0.59 0.67 0.70 0.74 0.77 0.78 0.80 0.77 0.80
0.69 0.76 0.35 0.13 0.14 0.31 0.37 0.16 0.10 0.09 0.08 0.09 0.10 0.10 0.08 0.08 0.08 0.08 0.07 0.06 0.07 0.10 0.12 0.13 0.16 0.17 0.19 0.24 0.28 0.32 0.35 0.38 0.47 0.53 0.56 0.57 0.67 0.67 0.67 0.74 0.77 0.77 0.77 0.80
0.49 0.38 0.20 0.16 0.20 0.22 0.17 0.13 0.09 0.07 0.06 0.07 0.08 0.08 0.09 0.09 0.08 0.09 0.07 0.06 0.06 0.08 0.10 0.12 0.14 0.16 0.18 0.22 0.28 0.37 0.36 0.37 0.44 0.52 0.58 0.61 0.67 0.69 0.69 0.70 0.74 0.77 0.78 0.76
0.30 0.18 0.14 0.14 0.14 0.12 0.09 0.09 0.08 0.08 0.08 0.09 0.08 0.08 0.09 0.09 0.10 0.11 0.10 0.07 0.06 0.08 0.10 0.13 0.16 0.17 0.19 0.22 0.28 0.37 0.38 0.38 0.42 0.48 0.57 0.59 0.64 0.66 0.69 0.72 0.81 0.85 0.81 0.76
0.25 0.16 0.11 0.09 0.09 0.10 0.08 0.07 0.06 0.06 0.06 0.07 0.08 0.08 0.08 0.09 0.10 0.11 0.11 0.08 0.07 0.07 0.10 0.14 0.17 0.19 0.18 0.21 0.29 0.36 0.40 0.39 0.42 0.46 0.58 0.60 0.63 0.65 0.68 0.67 0.85 1.00 0.90 0.89
0.21 0.14 0.15 0.11 0.07 0.09 0.10 0.09 0.08 0.08 0.08 0.06 0.07 0.08 0.09 0.11 0.11 0.10 0.10 0.08 0.08 0.07 0.09 0.14 0.18 0.20 0.20 0.22 0.28 0.36 0.42 0.44 0.44 0.47 0.57 0.61 0.63 0.67 0.71 0.70 0.74 0.76 0.80 0.89
0.13 0.08 0.09 0.09 0.07 0.07 0.09 0.10 0.11 0.11 0.11 0.11 0.09 0.09 0.10 0.11 0.10 0.10 0.08 0.08 0.08 0.09 0.11 0.14 0.18 0.21 0.24 0.25 0.27 0.34 0.43 0.47 0.48 0.48 0.56 0.61 0.56 0.61 0.64 0.65 0.68 0.70 0.72 0.76
0.09 0.10 0.11 0.09 0.09 0.07 0.07 0.08 0.10 0.10 0.10 0.10 0.11 0.11 0.11 0.11 0.11 0.09 0.08 0.09 0.08 0.09 0.11 0.15 0.17 0.21 0.26 0.27 0.26 0.33 0.41 0.47 0.49 0.51 0.56 0.59 0.55 0.55 0.56 0.62 0.67 0.70 0.74 0.79
0.08 0.09 0.10 0.08 0.07 0.07 0.05 0.06 0.08 0.08 0.08 0.08 0.08 0.09 0.10 0.10 0.10 0.08 0.08 0.08 0.08 0.08 0.09 0.12 0.15 0.19 0.24 0.26 0.27 0.33 0.44 0.50 0.52 0.56 0.59 0.59 0.57 0.57 0.55 0.57 0.61 0.66 0.74 0.88
0.08 0.06 0.06 0.06 0.06 0.07 0.07 0.07 0.08 0.09 0.10 0.09 0.09 0.10 0.11 0.10 0.08 0.08 0.07 0.08 0.08 0.09 0.10 0.12 0.15 0.20 0.24 0.25 0.26 0.32 0.42 0.58 0.63 0.64 0.64 0.63 0.62 0.60 0.60 0.60 0.62 0.66 0.74 0.87
0.13 0.09 0.08 0.07 0.08 0.09 0.10 0.10 0.10 0.12 0.12 0.12 0.12 0.13 0.12 0.10 0.08 0.07 0.08 0.08 0.10 0.11 0.12 0.14 0.16 0.21 0.24 0.25 0.29 0.35 0.45 0.56 0.66 0.68 0.68 0.69 0.68 0.65 0.63 0.65 0.67 0.68 0.72 0.86
0.13 0.12 0.12 0.13 0.13 0.12 0.12 0.11 0.11 0.12 0.13 0.14 0.14 0.14 0.14 0.12 0.11 0.10 0.10 0.09 0.10 0.10 0.13 0.17 0.21 0.23 0.24 0.27 0.33 0.40 0.50 0.60 0.68 0.76 0.78 0.78 0.78 0.71 0.70 0.71 0.69 0.70 0.72 0.81
0.12 0.12 0.13 0.13 0.13 0.14 0.15 0.17 0.15 0.14 0.13 0.13 0.12 0.13 0.14 0.14 0.13 0.13 0.12 0.11 0.13 0.16 0.18 0.21 0.25 0.24 0.26 0.33 0.43 0.49 0.57 0.66 0.74 0.79 0.82 0.87 0.85 0.77 0.75 0.74 0.73 0.74 0.77 0.83
0.15 0.15 0.15 0.15 0.13 0.15 0.16 0.17 0.17 0.14 0.13 0.14 0.14 0.14 0.14 0.15 0.16 0.17 0.17 0.17 0.19 0.24 0.27 0.30 0.28 0.29 0.36 0.44 0.55 0.58 0.63 0.72 0.80 0.85 0.87 0.88 0.89 0.89 0.85 0.82 0.81 0.81 0.83 0.86
0.19 0.17 0.16 0.15 0.14 0.14 0.15 0.17 0.19 0.18 0.15 0.16 0.18 0.19 0.18 0.18 0.19 0.20 0.21 0.24 0.25 0.28 0.31 0.33 0.33 0.41 0.53 0.60 0.60 0.60 0.66 0.77 0.84 0.87 0.90 0.93 0.95 0.93 0.91 0.88 0.85 0.86 0.87 0.86
0.23 0.22 0.20 0.19 0.19 0.20 0.20 0.20 0.23 0.23 0.20 0.20 0.21 0.22 0.23 0.23 0.21 0.22 0.26 0.33 0.36 0.37 0.36 0.36 0.41 0.51 0.62 0.64 0.60 0.63 0.71 0.82 0.88 0.89 0.92 0.94 0.99 1.01 0.96 0.94 0.91 0.88 0.89 0.89
0.31 0.29 0.28 0.28 0.29 0.30 0.28 0.28 0.30 0.30 0.30 0.30 0.30 0.30 0.31 0.31 0.28 0.29 0.35 0.38 0.39 0.41 0.42 0.46 0.52 0.57 0.62 0.62 0.64 0.68 0.78 0.91 0.96 0.96 0.96 0.96 1.00 1.05 1.05 1.01 0.94 0.92 0.95 0.94
0.39 0.37 0.37 0.38 0.37 0.35 0.37 0.39 0.39 0.39 0.40 0.41 0.41 0.40 0.39 0.37 0.35 0.38 0.44 0.46 0.45 0.45 0.49 0.54 0.55 0.57 0.60 0.62 0.67 0.77 0.89 0.99 1.03 1.03 1.02 1.01 1.03 1.07 1.07 1.04 0.99 0.94 0.92 0.92
0.45 0.44 0.43 0.44 0.47 0.50 0.49 0.47 0.45 0.44 0.42 0.44 0.45 0.44 0.44 0.44 0.47 0.50 0.50 0.49 0.48 0.48 0.51 0.53 0.54 0.56 0.58 0.64 0.73 0.87 0.97 1.04 1.12 1.13 1.12 1.10 1.07 1.08 1.08 1.04 0.98 0.92 0.88 0.87
0.49 0.50 0.51 0.54 0.58 0.59 0.56 0.51 0.49 0.48 0.44 0.43 0.44 0.45 0.46 0.48 0.50 0.52 0.52 0.51 0.50 0.53 0.54 0.54 0.55 0.59 0.65 0.71 0.79 0.91 0.98 1.04 1.13 1.15 1.10 1.08 1.07 1.08 1.09 1.05 0.94 0.87 0.81 0.80
0.52 0.52 0.51 0.51 0.54 0.56 0.55 0.54 0.53 0.52 0.48 0.45 0.45 0.46 0.46 0.47 0.49 0.50 0.50 0.50 0.51 0.52 0.54 0.57 0.59 0.65 0.70 0.78 0.85 0.92 0.98 1.04 1.14 1.20 1.15 1.11 1.10 1.10 1.08 1.01 0.90 0.82 0.76 0.77

GEFSNGP_prec_meanprecacc_216.txt.gz
Total_Precipitation_Accumulation
0.27 0.22 0.31 0.36 0.34 0.37 0.48 0.47 0.37 0.21 0.16 0.18 0.18 0.18 0.18 0.16 0.13 0.10 0.10 0.08 0.08 0.10 0.13 0.14 0.14 0.14 0.17 0.24 0.31 0.50 0.72 0.89 0.91 0.86 0.93 0.99 0.98 1.05 1.12 1.18 1.25 1.39 1.49 1.62
0.23 0.13 0.19 0.25 0.20 0.23 0.26 0.26 0.23 0.18 0.19 0.17 0.17 0.15 0.16 0.15 0.14 0.13 0.12 0.11 0.08 0.09 0.12 0.14 0.14 0.14 0.17 0.20 0.26 0.39 0.56 0.76 0.87 0.86 0.90 0.98 0.97 1.03 1.11 1.18 1.23 1.36 1.41 1.44
0.38 0.15 0.33 0.44 0.26 0.23 0.22 0.22 0.23 0.25 0.24 0.17 0.16 0.16 0.17 0.16 0.15 0.17 0.16 0.14 0.11 0.11 0.13 0.14 0.14 0.15 0.18 0.19 0.20 0.29 0.44 0.62 0.77 0.80 0.80 0.86 0.89 0.98 1.07 1.17 1.16 1.22 1.26 1.25
0.64 0.46 0.75 0.44 0.18 0.20 0.24 0.26 0.25 0.25 0.21 0.19 0.18 0.19 0.17 0.16 0.17 0.18 0.18 0.16 0.15 0.15 0.15 0.14 0.13 0.14 0.16 0.18 0.20 0.24 0.35 0.51 0.70 0.75 0.74 0.75 0.79 0.84 0.94 1.06 1.12 1.09 1.10 1.09
0.97 0.69 0.43 0.21 0.11 0.18 0.29 0.32 0.24 0.19 0.14 0.14 0.16 0.16 0.16 0.14 0.12 0.13 0.15 0.15 0.15 0.17 0.18 0.17 0.15 0.15 0.17 0.19 0.19 0.23 0.35 0.48 0.61 0.72 0.72 0.68 0.74 0.77 0.82 0.89 0.98 0.98 0.96 1.02
1.17 0.85 0.45 0.23 0.09 0.12 0.25 0.39 0.20 0.14 0.12 0.13 0.17 0.22 0.18 0.13 0.08 0.06 0.08 0.10 0.11 0.13 0.15 0.17 0.17 0.17 0.19 0.23 0.23 0.26 0.39 0.50 0.55 0.64 0.66 0.64 0.69 0.76 0.78 0.79 0.85 0.88 0.84 0.89
0.98 0.77 0.33 0.15 0.09 0.14 0.37 0.43 0.18 0.12 0.11 0.12 0.19 0.23 0.15 0.09 0.08 0.06 0.06 0.08 0.09 0.11 0.13 0.16 0.18 0.19 0.20 0.23 0.26 0.29 0.38 0.45 0.51 0.57 0.60 0.59 0.67 0.70 0.74 0.78 0.79 0.80 0.77 0.80
0.74 0.82 0.39 0.14 0.15 0.32 0.39 0.17 0.11 0.09 0.08 0.09 0.11 0.10 0.08 0.08 0.08 0.08 0.07 0.06 0.07 0.10 0.12 0.13 0.16 0.17 0.19 0.24 0.28 0.32 0.35 0.39 0.47 0.54 0.56 0.57 0.67 0.67 0.68 0.74 0.78 0.78 0.77 0.80
0.54 0.43 0.23 0.17 0.22 0.23 0.18 0.14 0.09 0.08 0.07 0.08 0.09 0.09 0.09 0.09 0.08 0.09 0.07 0.06 0.06 0.08 0.10 0.12 0.14 0.16 0.18 0.22 0.29 0.37 0.36 0.37 0.44 0.52 0.58 0.61 0.67 0.69 0.69 0.71 0.74 0.78 0.78 0.76
0.34 0.21 0.17 0.15 0.15 0.13 0.09 0.09 0.08 0.08 0.08 0.09 0.09 0.08 0.09 0.10 0.10 0.11 0.10 0.07 0.06 0.08 0.11 0.13 0.16 0.17 0.19 0.22 0.28 0.38 0.38 0.38 0.43 0.49 0.58 0.60 0.65 0.67 0.69 0.73 0.82 0.86 0.81 0.76
0.29 0.18 0.14 0.11 0.10 0.11 0.09 0.07 0.06 0.06 0.07 0.08 0.08 0.08 0.08 0.09 0.11 0.12 0.11 0.08 0.07 0.07 0.11 0.14 0.18 0.19 0.18 0.21 0.29 0.37 0.40 0.40 0.42 0.46 0.58 0.61 0.64 0.66 0.68 0.67 0.86 1.01 0.91 0.90
0.26 0.17 0.18 0.13 0.09 0.10 0.11 0.09 0.08 0.09 0.08 0.07 0.08 0.09 0.09 0.11 0.11 0.11 0.10 0.08 0.08 0.07 0.09 0.14 0.18 0.20 0.20 0.22 0.28 0.36 0.42 0.44 0.45 0.48 0.58 0.62 0.64 0.68 0.71 0.71 0.75 0.77 0.81 0.90
0.16 0.09 0.10 0.10 0.08 0.07 0.10 0.11 0.12 0.12 0.12 0.11 0.09 0.09 0.11 0.12 0.11 0.10 0.09 0.08 0.08 0.09 0.11 0.14 0.19 0.22 0.24 0.25 0.27 0.35 0.44 0.48 0.48 0.49 0.57 0.62 0.57 0.62 0.64 0.66 0.69 0.72 0.73 0.78
0.12 0.11 0.12 0.10 0.09 0.08 0.07 0.09 0.10 0.11 0.10 0.11 0.11 0.11 0.11 0.11 0.11 0.10 0.08 0.09 0.09 0.09 0.11 0.15 0.18 0.21 0.27 0.28 0.27 0.33 0.42 0.47 0.50 0.52 0.57 0.60 0.56 0.56 0.56 0.63 0.68 0.71 0.75 0.80
0.10 0.11 0.11 0.08 0.08 0.08 0.07 0.07 0.09 0.09 0.09 0.08 0.09 0.09 0.10 0.11 0.10 0.09 0.08 0.08 0.08 0.08 0.09 0.12 0.15 0.20 0.25 0.26 0.27 0.34 0.45 0.51 0.53 0.57 0.60 0.60 0.58 0.58 0.55 0.58 0.62 0.66 0.74 0.89
0.10 0.07 0.07 0.07 0.08 0.09 0.09 0.09 0.10 0.11 0.11 0.11 0.10 0.11 0.12 0.11 0.09 0.08 0.07 0.08 0.09 0.09 0.10 0.12 0.15 0.20 0.25 0.25 0.27 0.32 0.42 0.58 0.63 0.64 0.65 0.64 0.62 0.61 0.60 0.60 0.62 0.66 0.75 0.88
0.14 0.11 0.09 0.09 0.09 0.10 0.11 0.12 0.12 0.14 0.14 0.14 0.14 0.14 0.14 0.11 0.08 0.08 0.08 0.09 0.10 0.11 0.12 0.14 0.17 0.21 0.25 0.26 0.30 0.36 0.45 0.56 0.67 0.69 0.68 0.70 0.69 0.65 0.64 0.66 0.68 0.69 0.73 0.87
0.15 0.14 0.13 0.15 0.15 0.14 0.13 0.13 0.13 0.14 0.15 0.15 0.15 0.15 0.15 0.13 0.12 0.11 0.10 0.10 0.10 0.10 0.13 0.17 0.21 0.24 0.25 0.27 0.34 0.41 0.51 0.61 0.69 0.77 0.79 0.79 0.78 0.72 0.71 0.72 0.69 0.71 0.73 0.83
0.13 0.14 0.14 0.14 0.15 0.15 0.17 0.18 0.17 0.15 0.14 0.14 0.13 0.14 0.15 0.14 0.14 0.13 0.12 0.12 0.13 0.16 0.18 0.21 0.26 0.24 0.27 0.33 0.44 0.50 0.58 0.67 0.74 0.80 0.83 0.88 0.86 0.78 0.76 0.75 0.75 0.76 0.79 0.84
0.16 0.16 0.16 0.16 0.14 0.16 0.17 0.18 0.18 0.15 0.14 0.14 0.15 0.14 0.15 0.15 0.16 0.17 0.17 0.17 0.20 0.25 0.27 0.30 0.29 0.30 0.36 0.45 0.56 0.59 0.64 0.73 0.81 0.86 0.88 0.89 0.90 0.90 0.87 0.83 0.82 0.83 0.84 0.87
0.20 0.18 0.17 0.16 0.15 0.15 0.16 0.18 0.20 0.18 0.16 0.16 0.19 0.19 0.19 0.19 0.19 0.20 0.22 0.24 0.25 0.29 0.32 0.34 0.34 0.41 0.54 0.62 0.61 0.61 0.67 0.78 0.85 0.88 0.91 0.94 0.96 0.94 0.93 0.90 0.87 0.87 0.88 0.87
0.24 0.23 0.21 0.20 0.20 0.21 0.21 0.22 0.24 0.23 0.21 0.21 0.22 0.23 0.23 0.24 0.22 0.23 0.26 0.34 0.37 0.38 0.37 0.36 0.41 0.52 0.63 0.66 0.61 0.64 0.72 0.83 0.90 0.90 0.93 0.95 1.00 1.03 0.98 0.95 0.93 0.90 0.91 0.90
0.32 0.30 0.29 0.29 0.30 0.31 0.29 0.29 0.30 0.30 0.31 0.31 0.31 0.30 0.31 0.31 0.29 0.30 0.35 0.38 0.40 0.41 0.42 0.46 0.53 0.58 0.63 0.64 0.65 0.69 0.80 0.92 0.98 0.98 0.97 0.98 1.02 1.07 1.07 1.03 0.96 0.94 0.97 0.96
0.40 0.38 0.38 0.40 0.38 0.37 0.38 0.40 0.40 0.40 0.41 0.42 0.42 0.41 0.39 0.37 0.36 0.39 0.45 0.47 0.46 0.46 0.50 0.54 0.56 0.58 0.62 0.63 0.69 0.79 0.91 1.01 1.05 1.05 1.04 1.03 1.05 1.09 1.09 1.06 1.01 0.95 0.94 0.94
0.46 0.45 0.45 0.46 0.49 0.52 0.51 0.48 0.46 0.45 0.43 0.44 0.45 0.45 0.45 0.45 0.48 0.51 0.51 0.50 0.49 0.49 0.51 0.54 0.55 0.57 0.59 0.65 0.75 0.89 1.00 1.06 1.14 1.16 1.14 1.12 1.09 1.10 1.10 1.06 1.00 0.93 0.90 0.89
0.50 0.51 0.53 0.55 0.59 0.60 0.57 0.52 0.50 0.49 0.45 0.44 0.44 0.45 0.47 0.48 0.50 0.52 0.52 0.52 0.51 0.53 0.55 0.55 0.56 0.60 0.66 0.73 0.81 0.93 1.01 1.07 1.16 1.18 1.13 1.11 1.09 1.10 1.11 1.06 0.96 0.88 0.83 0.82
0.53 0.53 0.51 0.52 0.55 0.57 0.56 0.55 0.54 0.53 0.49 0.46 0.46 0.46 0.47 0.48 0.49 0.51 0.50 0.50 0.52 0.53 0.55 0.58 0.60 0.66 0.72 0.80 0.87 0.94 1.01 1.07 1.16 1.23 1.18 1.14 1.13 1.12 1.11 1.02 0.91 0.83 0.78 0.79

GEFSNGP_prec_meanprecacc_222.txt.gz
Total_Precipitation_Accumulation
0.29 0.24 0.32 0.38 0.36 0.38 0.50 0.49 0.38 0.22 0.17 0.19 0.18 0.18 0.18 0.16 0.13 0.10 0.10 0.08 0.08 0.10 0.13 0.14 0.14 0.14 0.17 0.24 0.31 0.50 0.72 0.90 0.92 0.88 0.94 0.99 0.99 1.06 1.13 1.18 1.26 1.39 1.50 1.63
0.24 0.15 0.20 0.26 0.22 0.24 0.27 0.28 0.25 0.19 0.21 0.18 0.17 0.15 0.16 0.16 0.15 0.13 0.12 0.11 0.08 0.09 0.12 0.14 0.14 0.14 0.17 0.20 0.26 0.39 0.57 0.76 0.88 0.87 0.91 0.99 0.98 1.04 1.11 1.18 1.24 1.37 1.42 1.44
0.40 0.17 0.35 0.48 0.29 0.26 0.24 0.23 0.24 0.26 0.26 0.20 0.18 0.17 0.17 0.16 0.16 0.17 0.16 0.14 0.12 0.11 0.13 0.14 0.14 0.15 0.18 0.19 0.21 0.30 0.45 0.63 0.78 0.80 0.81 0.86 0.90 0.98 1.08 1.17 1.17 1.22 1.26 1.25
0.67 0.49 0.80 0.49 0.20 0.22 0.27 0.29 0.27 0.26 0.23 0.21 0.20 0.20 0.18 0.16 0.17 0.19 0.18 0.16 0.15 0.15 0.15 0.14 0.13 0.14 0.16 0.18 0.20 0.25 0.36 0.52 0.70 0.76 0.74 0.75 0.80 0.85 0.94 1.06 1.12 1.10 1.10 1.09
1.01 0.74 0.47 0.23 0.14 0.22 0.32 0.36 0.27 0.21 0.16 0.17 0.17 0.17 0.17 0.15 0.12 0.13 0.15 0.15 0.15 0.17 0.18 0.17 0.15 0.15 0.17 0.19 0.20 0.24 0.36 0.48 0.61 0.72 0.72 0.69 0.74 0.78 0.82 0.89 0.99 0.98 0.97 1.02
1.21 0.89 0.49 0.27 0.11 0.14 0.28 0.43 0.23 0.16 0.14 0.15 0.19 0.24 0.19 0.13 0.08 0.06 0.08 0.10 0.12 0.13 0.15 0.17 0.17 0.17 0.19 0.23 0.24 0.26 0.39 0.50 0.55 0.64 0.67 0.64 0.69 0.76 0.78 0.80 0.85 0.88 0.84 0.89
1.02 0.81 0.36 0.18 0.11 0.16 0.41 0.48 0.21 0.14 0.13 0.14 0.21 0.24 0.16 0.09 0.08 0.06 0.06 0.08 0.09 0.11 0.13 0.16 0.18 0.19 0.20 0.23 0.27 0.29 0.38 0.45 0.51 0.57 0.60 0.59 0.67 0.70 0.75 0.78 0.79 0.80 0.77 0.80
0.80 0.88 0.45 0.16 0.16 0.35 0.44 0.20 0.13 0.11 0.10 0.11 0.12 0.11 0.09 0.08 0.08 0.08 0.07 0.06 0.07 0.10 0.12 0.13 0.16 0.17 0.19 0.24 0.29 0.32 0.35 0.39 0.47 0.54 0.56 0.57 0.68 0.67 0.68 0.75 0.78 0.78 0.78 0.81
0.63 0.52 0.29 0.21 0.25 0.26 0.20 0.15 0.11 0.09 0.08 0.09 0.10 0.10 0.09 0.10 0.09 0.09 0.07 0.06 0.06 0.08 0.10 0.12 0.14 0.16 0.18 0.22 0.29 0.37 0.36 0.37 0.44 0.52 0.59 0.61 0.67 0.69 0.70 0.71 0.75 0.79 0.79 0.77
0.39 0.27 0.21 0.20 0.18 0.14 0.10 0.10 0.09 0.09 0.09 0.10 0.10 0.09 0.10 0.10 0.10 0.11 0.10 0.07 0.06 0.08 0.11 0.13 0.16 0.17 0.19 0.22 0.29 0.38 0.38 0.38 0.43 0.49 0.58 0.60 0.65 0.67 0.70 0.73 0.82 0.87 0.83 0.78
0.33 0.22 0.17 0.14 0.13 0.13 0.11 0.08 0.07 0.07 0.07 0.08 0.09 0.09 0.09 0.10 0.11 0.12 0.11 0.08 0.07 0.07 0.11 0.14 0.18 0.19 0.18 0.22 0.29 0.37 0.40 0.40 0.42 0.46 0.59 0.62 0.64 0.67 0.70 0.69 0.88 1.03 0.93 0.91
0.30 0.20 0.22 0.17 0.12 0.12 0.13 0.11 0.09 0.09 0.08 0.07 0.08 0.09 0.10 0.12 0.12 0.11 0.10 0.09 0.08 0.08 0.09 0.14 0.19 0.21 0.20 0.23 0.29 0.36 0.42 0.44 0.45 0.48 0.59 0.62 0.65 0.69 0.73 0.73 0.77 0.79 0.84 0.92
0.19 0.12 0.13 0.14 0.12 0.10 0.12 0.12 0.13 0.13 0.12 0.11 0.10 0.09 0.11 0.12 0.11 0.11 0.09 0.08 0.08 0.10 0.11 0.15 0.19 0.22 0.24 0.25 0.28 0.36 0.45 0.48 0.49 0.49 0.58 0.62 0.58 0.63 0.66 0.67 0.71 0.74 0.75 0.80
0.14 0.13 0.14 0.13 0.13 0.11 0.11 0.12 0.13 0.13 0.12 0.12 0.12 0.12 0.12 0.12 0.12 0.10 0.09 0.09 0.09 0.09 0.11 0.15 0.18 0.22 0.27 0.28 0.27 0.34 0.43 0.48 0.51 0.53 0.58 0.61 0.57 0.57 0.58 0.64 0.69 0.72 0.76 0.81
0.12 0.13 0.14 0.12 0.11 0.10 0.09 0.09 0.11 0.11 0.10 0.10 0.10 0.10 0.11 0.12 0.11 0.09 0.08 0.09 0.08 0.08 0.10 0.12 0.15 0.20 0.25 0.27 0.28 0.34 0.45 0.52 0.53 0.57 0.60 0.61 0.59 0.59 0.57 0.59 0.63 0.67 0.75 0.90
0.12 0.09 0.09 0.10 0.10 0.11 0.11 0.11 0.12 0.13 0.13 0.12 0.12 0.13 0.13 0.12 0.09 0.08 0.08 0.08 0.09 0.10 0.10 0.12 0.15 0.20 0.25 0.26 0.27 0.33 0.43 0.59 0.64 0.65 0.65 0.64 0.63 0.62 0.61 0.61 0.63 0.67 0.76 0.89
0.16 0.12 0.11 0.11 0.11 0.12 0.14 0.14 0.14 0.16 0.16 0.16 0.17 0.17 0.15 0.12 0.10 0.09 0.09 0.09 0.11 0.12 0.13 0.15 0.17 0.21 0.25 0.27 0.30 0.36 0.46 0.57 0.67 0.69 0.69 0.70 0.69 0.66 0.65 0.67 0.68 0.69 0.74 0.88
0.18 0.16 0.15 0.17 0.17 0.16 0.15 0.15 0.15 0.16 0.18 0.18 0.18 0.18 0.17 0.15 0.14 0.13 0.12 0.11 0.12 0.12 0.14 0.18 0.22 0.24 0.26 0.28 0.35 0.41 0.52 0.61 0.69 0.77 0.79 0.80 0.79 0.73 0.72 0.72 0.70 0.72 0.74 0.84
0.16 0.16 0.16 0.16 0.16 0.17 0.18 0.19 0.18 0.16 0.16 0.15 0.15 0.16 0.17 0.17 0.16 0.15 0.13 0.13 0.14 0.17 0.19 0.22 0.27 0.25 0.27 0.34 0.45 0.50 0.58 0.67 0.75 0.81 0.83 0.89 0.86 0.79 0.77 0.75 0.75 0.77 0.80 0.86
0.18 0.18 0.18 0.17 0.15 0.17 0.18 0.19 0.19 0.16 0.15 0.15 0.16 0.16 0.17 0.17 0.17 0.18 0.18 0.18 0.21 0.26 0.28 0.30 0.29 0.30 0.37 0.45 0.57 0.60 0.64 0.74 0.82 0.87 0.89 0.90 0.91 0.90 0.87 0.84 0.83 0.84 0.86 0.89
0.21 0.19 0.18 0.17 0.16 0.16 0.17 0.19 0.21 0.19 0.16 0.17 0.20 0.20 0.20 0.20 0.20 0.21 0.22 0.25 0.26 0.29 0.32 0.34 0.34 0.42 0.54 0.62 0.62 0.61 0.68 0.79 0.86 0.89 0.92 0.95 0.96 0.95 0.93 0.91 0.88 0.89 0.90 0.89
0.26 0.24 0.22 0.21 0.21 0.22 0.22 0.22 0.24 0.24 0.22 0.21 0.22 0.23 0.24 0.24 0.23 0.23 0.27 0.34 0.37 0.38 0.37 0.37 0.42 0.53 0.64 0.67 0.62 0.65 0.73 0.84 0.90 0.91 0.94 0.96 1.01 1.04 0.99 0.97 0.95 0.92 0.92 0.91
0.33 0.32 0.31 0.31 0.32 0.32 0.30 0.30 0.32 0.31 0.31 0.31 0.31 0.31 0.32 0.32 0.29 0.30 0.36 0.39 0.40 0.42 0.43 0.47 0.54 0.60 0.64 0.65 0.66 0.70 0.81 0.93 0.99 0.99 0.99 0.99 1.03 1.09 1.09 1.05 0.99 0.96 0.99 0.97
0.41 0.40 0.40 0.42 0.41 0.38 0.39 0.41 0.41 0.41 0.41 0.42 0.42 0.41 0.40 0.38 0.36 0.39 0.45 0.47 0.46 0.46 0.50 0.55 0.57 0.59 0.63 0.64 0.70 0.80 0.92 1.02 1.06 1.07 1.06 1.05 1.07 1.11 1.12 1.09 1.03 0.97 0.96 0.95
0.48 0.47 0.46 0.47 0.50 0.53 0.52 0.49 0.46 0.45 0.44 0.45 0.46 0.45 0.45 0.45 0.48 0.51 0.51 0.50 0.50 0.50 0.52 0.54 0.55 0.57 0.60 0.66 0.76 0.90 1.01 1.08 1.16 1.18 1.16 1.14 1.12 1.13 1.12 1.08 1.02 0.95 0.92 0.90
0.52 0.52 0.54 0.57 0.61 0.62 0.58 0.53 0.51 0.49 0.46 0.44 0.45 0.46 0.47 0.48 0.51 0.52 0.53 0.52 0.52 0.54 0.55 0.55 0.56 0.60 0.67 0.74 0.82 0.94 1.02 1.09 1.18 1.20 1.15 1.13 1.11 1.12 1.13 1.08 0.98 0.91 0.85 0.84
0.54 0.54 0.53 0.53 0.57 0.58 0.58 0.56 0.55 0.54 0.50 0.47 0.46 0.47 0.47 0.48 0.50 0.51 0.51 0.51 0.52 0.53 0.56 0.58 0.61 0.67 0.73 0.80 0.88 0.96 1.03 1.09 1.19 1.25 1.20 1.16 1.15 1.15 1.13 1.04 0.93 0.85 0.80 0.80

GEFSNGP_prec_meanprecacc_228.txt.gz
Total_Precipitation_Accumulation
0.32 0.27 0.34 0.39 0.37 0.40 0.54 0.52 0.40 0.23 0.17 0.20 0.18 0.18 0.18 0.16 0.13 0.11 0.10 0.08 0.08 0.10 0.13 0.14 0.14 0.14 0.17 0.24 0.31 0.50 0.72 0.90 0.92 0.88 0.94 0.99 0.99 1.07 1.14 1.20 1.27 1.40 1.51 1.63
0.26 0.16 0.22 0.28 0.23 0.26 0.30 0.31 0.27 0.20 0.23 0.19 0.18 0.16 0.17 0.16 0.15 0.14 0.12 0.11 0.08 0.09 0.12 0.14 0.14 0.14 0.17 0.20 0.26 0.39 0.57 0.76 0.88 0.87 0.91 0.99 0.98 1.04 1.12 1.20 1.26 1.38 1.43 1.45
0.42 0.18 0.37 0.51 0.31 0.28 0.27 0.26 0.27 0.28 0.28 0.21 0.19 0.18 0.18 0.17 0.16 0.17 0.16 0.14 0.12 0.11 0.13 0.14 0.14 0.15 0.18 0.19 0.21 0.30 0.45 0.63 0.78 0.80 0.81 0.87 0.90 0.99 1.08 1.18 1.19 1.24 1.28 1.26
0.69 0.51 0.83 0.53 0.23 0.24 0.29 0.31 0.29 0.28 0.25 0.23 0.21 0.22 0.19 0.17 0.18 0.19 0.18 0.17 0.16 0.15 0.15 0.14 0.13 0.14 0.16 0.18 0.20 0.25 0.36 0.52 0.70 0.76 0.74 0.75 0.80 0.85 0.95 1.07 1.13 1.11 1.11 1.10
1.03 0.76 0.49 0.26 0.16 0.25 0.35 0.39 0.30 0.23 0.19 0.19 0.18 0.18 0.18 0.16 0.12 0.13 0.15 0.15 0.15 0.17 0.19 0.17 0.15 0.15 0.17 0.19 0.20 0.24 0.36 0.48 0.61 0.72 0.72 0.69 0.74 0.78 0.82 0.89 0.99 0.98 0.97 1.03
1.24 0.91 0.51 0.29 0.13 0.16 0.31 0.46 0.26 0.19 0.16 0.17 0.20 0.26 0.21 0.14 0.09 0.07 0.08 0.10 0.12 0.13 0.15 0.17 0.17 0.17 0.19 0.23 0.24 0.26 0.39 0.50 0.55 0.64 0.67 0.64 0.69 0.76 0.78 0.80 0.85 0.88 0.85 0.90
1.04 0.83 0.39 0.20 0.12 0.17 0.44 0.51 0.23 0.17 0.15 0.16 0.23 0.26 0.17 0.10 0.09 0.07 0.07 0.08 0.09 0.11 0.13 0.16 0.18 0.19 0.20 0.23 0.27 0.29 0.38 0.45 0.51 0.57 0.60 0.59 0.67 0.70 0.75 0.78 0.79 0.81 0.77 0.81
0.83 0.92 0.48 0.19 0.19 0.39 0.47 0.21 0.14 0.12 0.12 0.12 0.14 0.12 0.10 0.09 0.09 0.08 0.07 0.07 0.08 0.10 0.12 0.13 0.16 0.17 0.19 0.24 0.29 0.32 0.35 0.39 0.47 0.54 0.56 0.57 0.68 0.68 0.68 0.75 0.79 0.79 0.78 0.81
0.67 0.57 0.34 0.25 0.29 0.29 0.22 0.17 0.12 0.11 0.10 0.11 0.12 0.11 0.10 0.10 0.09 0.09 0.08 0.06 0.06 0.09 0.11 0.12 0.14 0.16 0.18 0.22 0.29 0.37 0.36 0.38 0.44 0.53 0.59 0.62 0.67 0.69 0.70 0.72 0.75 0.79 0.79 0.77
0.43 0.31 0.25 0.24 0.21 0.17 0.12 0.12 0.11 0.11 0.11 0.12 0.12 0.11 0.12 0.11 0.11 0.11 0.10 0.07 0.06 0.08 0.11 0.13 0.16 0.17 0.19 0.22 0.29 0.38 0.38 0.38 0.43 0.49 0.58 0.61 0.65 0.67 0.70 0.73 0.82 0.87 0.83 0.78
0.35 0.25 0.20 0.17 0.16 0.16 0.12 0.10 0.09 0.09 0.09 0.10 0.11 0.12 0.11 0.12 0.13 0.13 0.12 0.09 0.08 0.08 0.11 0.14 0.18 0.19 0.18 0.22 0.29 0.37 0.40 0.40 0.42 0.46 0.59 0.62 0.65 0.67 0.70 0.69 0.88 1.03 0.93 0.92
0.31 0.22 0.25 0.20 0.15 0.14 0.15 0.12 0.11 0.11 0.10 0.09 0.10 0.11 0.12 0.15 0.15 0.13 0.12 0.10 0.09 0.08 0.09 0.14 0.19 0.21 0.20 0.23 0.29 0.37 0.43 0.45 0.45 0.48 0.59 0.62 0.65 0.69 0.73 0.74 0.78 0.80 0.84 0.93
0.21 0.14 0.15 0.17 0.15 0.13 0.14 0.14 0.15 0.14 0.14 0.13 0.12 0.12 0.14 0.15 0.15 0.14 0.12 0.11 0.10 0.11 0.12 0.16 0.20 0.23 0.25 0.26 0.28 0.36 0.45 0.48 0.49 0.49 0.58 0.63 0.59 0.63 0.66 0.67 0.71 0.74 0.76 0.80
0.16 0.15 0.16 0.15 0.16 0.14 0.13 0.14 0.14 0.14 0.13 0.13 0.14 0.14 0.14 0.15 0.15 0.13 0.11 0.12 0.11 0.11 0.12 0.16 0.19 0.22 0.27 0.28 0.27 0.34 0.44 0.49 0.51 0.53 0.59 0.62 0.58 0.59 0.58 0.64 0.69 0.73 0.77 0.83
0.14 0.15 0.16 0.14 0.13 0.13 0.12 0.11 0.12 0.13 0.12 0.12 0.11 0.12 0.13 0.14 0.13 0.12 0.10 0.11 0.10 0.09 0.10 0.13 0.16 0.20 0.26 0.27 0.28 0.35 0.46 0.53 0.55 0.59 0.62 0.62 0.61 0.61 0.58 0.60 0.64 0.68 0.76 0.91
0.14 0.12 0.11 0.12 0.12 0.13 0.13 0.12 0.13 0.15 0.15 0.14 0.14 0.15 0.15 0.13 0.11 0.10 0.10 0.10 0.10 0.10 0.11 0.13 0.15 0.20 0.25 0.26 0.28 0.33 0.43 0.59 0.65 0.66 0.67 0.66 0.65 0.63 0.62 0.63 0.64 0.68 0.76 0.90
0.19 0.14 0.13 0.13 0.13 0.14 0.15 0.16 0.16 0.18 0.18 0.18 0.19 0.19 0.17 0.14 0.12 0.11 0.11 0.11 0.12 0.12 0.13 0.15 0.18 0.22 0.26 0.27 0.31 0.36 0.46 0.57 0.68 0.70 0.70 0.71 0.70 0.67 0.66 0.68 0.69 0.70 0.75 0.89
0.20 0.18 0.17 0.18 0.19 0.17 0.17 0.16 0.16 0.18 0.19 0.19 0.20 0.20 0.19 0.17 0.15 0.15 0.14 0.13 0.13 0.13 0.15 0.19 0.23 0.25 0.26 0.28 0.35 0.42 0.52 0.62 0.70 0.78 0.80 0.81 0.80 0.73 0.73 0.73 0.71 0.73 0.75 0.85
0.17 0.17 0.17 0.18 0.18 0.18 0.19 0.21 0.19 0.18 0.17 0.16 0.16 0.18 0.19 0.18 0.17 0.16 0.15 0.14 0.16 0.18 0.20 0.23 0.27 0.26 0.28 0.34 0.45 0.51 0.59 0.68 0.76 0.82 0.85 0.90 0.88 0.80 0.78 0.76 0.76 0.77 0.81 0.86
0.19 0.19 0.19 0.18 0.16 0.18 0.19 0.20 0.20 0.17 0.16 0.17 0.17 0.17 0.18 0.19 0.19 0.20 0.19 0.19 0.22 0.27 0.29 0.31 0.30 0.31 0.37 0.46 0.57 0.61 0.65 0.74 0.83 0.88 0.90 0.91 0.92 0.92 0.89 0.85 0.84 0.85 0.87 0.90
0.24 0.21 0.20 0.18 0.17 0.17 0.18 0.20 0.22 0.20 0.18 0.19 0.21 0.22 0.21 0.21 0.21 0.22 0.23 0.26 0.27 0.31 0.33 0.35 0.35 0.42 0.54 0.63 0.63 0.62 0.69 0.80 0.86 0.90 0.93 0.96 0.98 0.96 0.95 0.92 0.90 0.90 0.91 0.90
0.28 0.26 0.24 0.23 0.23 0.23 0.23 0.24 0.26 0.25 0.23 0.23 0.24 0.24 0.25 0.25 0.23 0.24 0.28 0.35 0.39 0.40 0.38 0.38 0.43 0.54 0.65 0.67 0.63 0.65 0.73 0.85 0.91 0.92 0.95 0.97 1.02 1.05 1.01 0.98 0.96 0.93 0.94 0.93
0.35 0.34 0.33 0.33 0.34 0.34 0.31 0.31 0.33 0.33 0.32 0.32 0.32 0.32 0.32 0.32 0.30 0.31 0.36 0.40 0.41 0.42 0.43 0.48 0.55 0.61 0.65 0.66 0.67 0.71 0.82 0.94 1.00 1.00 1.00 1.00 1.05 1.10 1.11 1.07 1.00 0.98 1.00 0.99
0.44 0.42 0.42 0.44 0.42 0.40 0.40 0.42 0.42 0.42 0.42 0.43 0.43 0.42 0.40 0.38 0.36 0.39 0.46 0.48 0.47 0.47 0.51 0.55 0.58 0.60 0.64 0.65 0.71 0.81 0.93 1.03 1.08 1.08 1.07 1.06 1.08 1.13 1.14 1.11 1.06 0.99 0.97 0.97
0.50 0.49 0.48 0.49 0.52 0.54 0.53 0.50 0.47 0.45 0.44 0.45 0.46 0.45 0.45 0.45 0.49 0.52 0.51 0.51 0.50 0.50 0.52 0.54 0.56 0.58 0.60 0.67 0.76 0.91 1.01 1.09 1.17 1.19 1.18 1.16 1.13 1.14 1.14 1.10 1.04 0.97 0.93 0.92
0.53 0.54 0.56 0.59 0.62 0.63 0.59 0.54 0.51 0.50 0.46 0.44 0.45 0.46 0.47 0.49 0.51 0.53 0.53 0.53 0.52 0.54 0.56 0.56 0.56 0.61 0.67 0.74 0.82 0.95 1.03 1.10 1.19 1.21 1.17 1.14 1.13 1.14 1.15 1.10 1.00 0.92 0.86 0.85
0.56 0.56 0.54 0.55 0.58 0.60 0.59 0.57 0.56 0.55 0.50 0.47 0.47 0.47 0.48 0.49 0.50 0.52 0.51 0.51 0.52 0.54 0.56 0.59 0.61 0.67 0.73 0.81 0.89 0.96 1.03 1.10 1.20 1.27 1.22 1.17 1.17 1.16 1.15 1.06 0.95 0.87 0.81 0.81

GEFSNGP_prec_meanprecacc_234.txt.gz
Total_Precipitation_Accumulation
0.34 0.28 0.37 0.42 0.40 0.43 0.57 0.55 0.43 0.24 0.18 0.20 0.19 0.19 0.19 0.16 0.13 0.11 0.10 0.08 0.08 0.10 0.13 0.14 0.14 0.14 0.17 0.24 0.31 0.50 0.72 0.91 0.92 0.88 0.94 1.00 0.99 1.07 1.14 1.20 1.27 1.40 1.51 1.63
0.27 0.17 0.24 0.30 0.25 0.28 0.32 0.33 0.30 0.22 0.24 0.20 0.19 0.16 0.17 0.17 0.15 0.14 0.12 0.11 0.09 0.09 0.12 0.14 0.14 0.14 0.17 0.20 0.26 0.39 0.57 0.77 0.88 0.87 0.91 0.99 0.98 1.04 1.12 1.20 1.26 1.38 1.43 1.45
0.43 0.18 0.39 0.53 0.34 0.31 0.30 0.30 0.31 0.31 0.30 0.23 0.21 0.20 0.19 0.17 0.17 0.18 0.17 0.15 0.12 0.11 0.13 0.14 0.14 0.15 0.18 0.19 0.21 0.30 0.45 0.63 0.78 0.80 0.81 0.87 0.90 0.99 1.08 1.18 1.19 1.24 1.28 1.26
0.70 0.52 0.86 0.56 0.26 0.27 0.32 0.35 0.33 0.32 0.28 0.26 0.24 0.24 0.21 0.18 0.19 0.19 0.19 0.17 0.16 0.16 0.15 0.14 0.13 0.14 0.16 0.18 0.20 0.25 0.36 0.52 0.70 0.76 0.74 0.75 0.80 0.85 0.95 1.07 1.13 1.11 1.11 1.10
1.05 0.77 0.51 0.28 0.18 0.26 0.37 0.42 0.33 0.26 0.21 0.21 0.20 0.20 0.20 0.17 0.13 0.14 0.16 0.16 0.16 0.18 0.20 0.18 0.16 0.16 0.17 0.19 0.20 0.24 0.36 0.48 0.61 0.72 0.72 0.69 0.74 0.78 0.82 0.89 0.99 0.99 0.97 1.03
1.26 0.93 0.54 0.32 0.15 0.17 0.32 0.49 0.28 0.21 0.18 0.19 0.22 0.27 0.23 0.15 0.09 0.07 0.09 0.11 0.12 0.13 0.16 0.18 0.19 0.19 0.20 0.24 0.24 0.26 0.39 0.50 0.55 0.64 0.67 0.64 0.69 0.76 0.78 0.80 0.85 0.88 0.85 0.90
1.06 0.85 0.41 0.22 0.13 0.18 0.45 0.53 0.25 0.18 0.16 0.17 0.25 0.28 0.18 0.11 0.09 0.07 0.07 0.09 0.10 0.11 0.13 0.17 0.19 0.20 0.21 0.24 0.28 0.30 0.38 0.45 0.51 0.57 0.60 0.59 0.67 0.70 0.75 0.78 0.79 0.81 0.77 0.81
0.85 0.93 0.50 0.20 0.20 0.41 0.49 0.23 0.15 0.13 0.13 0.14 0.15 0.13 0.11 0.10 0.09 0.09 0.07 0.07 0.08 0.10 0.12 0.14 0.16 0.18 0.20 0.25 0.30 0.34 0.36 0.39 0.47 0.54 0.56 0.57 0.68 0.68 0.68 0.75 0.79 0.79 0.78 0.81
0.69 0.59 0.36 0.26 0.31 0.31 0.24 0.18 0.13 0.12 0.11 0.13 0.13 0.12 0.12 0.11 0.10 0.10 0.08 0.06 0.07 0.09 0.11 0.12 0.15 0.16 0.18 0.23 0.29 0.38 0.37 0.38 0.45 0.53 0.59 0.62 0.68 0.70 0.70 0.72 0.76 0.79 0.79 0.77
0.44 0.32 0.27 0.25 0.22 0.18 0.13 0.14 0.12 0.12 0.13 0.14 0.14 0.13 0.14 0.13 0.12 0.12 0.11 0.08 0.07 0.08 0.11 0.14 0.16 0.18 0.19 0.23 0.29 0.38 0.38 0.38 0.43 0.49 0.58 0.61 0.66 0.68 0.70 0.74 0.83 0.87 0.83 0.78
0.37 0.27 0.22 0.18 0.17 0.17 0.14 0.11 0.11 0.11 0.11 0.13 0.14 0.14 0.14 0.14 0.15 0.15 0.14 0.10 0.09 0.08 0.11 0.15 0.18 0.20 0.19 0.23 0.30 0.37 0.40 0.40 0.43 0.47 0.59 0.62 0.65 0.68 0.70 0.70 0.88 1.03 0.93 0.92
0.33 0.24 0.27 0.22 0.18 0.17 0.16 0.14 0.13 0.13 0.13 0.12 0.13 0.14 0.15 0.17 0.18 0.17 0.15 0.12 0.10 0.09 0.10 0.15 0.19 0.22 0.21 0.24 0.30 0.38 0.43 0.45 0.45 0.48 0.59 0.63 0.65 0.70 0.73 0.74 0.78 0.80 0.85 0.93
0.23 0.16 0.18 0.19 0.18 0.16 0.17 0.17 0.17 0.16 0.16 0.15 0.14 0.15 0.16 0.18 0.18 0.18 0.15 0.14 0.13 0.13 0.14 0.17 0.21 0.24 0.26 0.27 0.29 0.37 0.46 0.49 0.50 0.50 0.59 0.64 0.59 0.64 0.67 0.68 0.71 0.74 0.76 0.81
0.18 0.18 0.19 0.18 0.19 0.17 0.16 0.16 0.17 0.16 0.15 0.15 0.16 0.16 0.17 0.18 0.18 0.16 0.15 0.15 0.14 0.13 0.14 0.17 0.20 0.23 0.28 0.28 0.27 0.34 0.44 0.50 0.52 0.54 0.60 0.63 0.60 0.60 0.60 0.65 0.70 0.73 0.77 0.83
0.16 0.18 0.19 0.17 0.16 0.15 0.14 0.13 0.14 0.15 0.14 0.14 0.14 0.15 0.16 0.16 0.16 0.15 0.14 0.14 0.13 0.12 0.12 0.14 0.17 0.21 0.26 0.27 0.28 0.35 0.46 0.53 0.55 0.59 0.63 0.63 0.62 0.62 0.60 0.61 0.65 0.69 0.77 0.92
0.16 0.13 0.13 0.14 0.15 0.15 0.15 0.14 0.16 0.18 0.18 0.17 0.17 0.18 0.19 0.16 0.14 0.13 0.12 0.12 0.13 0.13 0.13 0.15 0.17 0.22 0.26 0.27 0.28 0.33 0.43 0.60 0.65 0.67 0.67 0.66 0.65 0.64 0.63 0.64 0.65 0.69 0.77 0.90
0.21 0.16 0.14 0.14 0.15 0.16 0.17 0.18 0.18 0.21 0.21 0.21 0.22 0.22 0.20 0.17 0.14 0.13 0.13 0.13 0.14 0.15 0.15 0.17 0.19 0.23 0.27 0.27 0.31 0.37 0.46 0.57 0.68 0.70 0.70 0.72 0.71 0.68 0.67 0.69 0.71 0.72 0.76 0.90
0.22 0.20 0.20 0.21 0.21 0.20 0.19 0.18 0.19 0.20 0.21 0.22 0.22 0.22 0.22 0.19 0.17 0.16 0.16 0.15 0.15 0.15 0.17 0.20 0.24 0.26 0.27 0.29 0.36 0.42 0.52 0.62 0.70 0.78 0.80 0.81 0.81 0.74 0.74 0.74 0.72 0.74 0.76 0.86
0.19 0.20 0.20 0.20 0.21 0.21 0.22 0.23 0.21 0.19 0.18 0.18 0.18 0.19 0.20 0.20 0.18 0.18 0.17 0.16 0.17 0.20 0.22 0.25 0.28 0.27 0.29 0.35 0.46 0.51 0.60 0.68 0.76 0.82 0.85 0.91 0.88 0.80 0.79 0.78 0.77 0.79 0.82 0.88
0.21 0.21 0.21 0.20 0.19 0.20 0.21 0.22 0.22 0.19 0.17 0.18 0.18 0.18 0.19 0.20 0.20 0.21 0.20 0.21 0.24 0.29 0.31 0.33 0.31 0.32 0.38 0.46 0.58 0.61 0.65 0.75 0.83 0.88 0.90 0.91 0.93 0.92 0.89 0.86 0.85 0.86 0.88 0.91
0.25 0.22 0.21 0.20 0.19 0.19 0.20 0.22 0.24 0.22 0.19 0.20 0.22 0.22 0.22 0.22 0.22 0.23 0.24 0.27 0.29 0.32 0.35 0.36 0.36 0.43 0.55 0.63 0.63 0.63 0.69 0.80 0.87 0.90 0.93 0.96 0.98 0.97 0.96 0.93 0.90 0.91 0.92 0.91
0.29 0.27 0.25 0.24 0.24 0.25 0.25 0.26 0.27 0.27 0.24 0.24 0.25 0.25 0.26 0.26 0.24 0.25 0.29 0.37 0.40 0.41 0.39 0.39 0.44 0.55 0.66 0.68 0.64 0.66 0.74 0.85 0.92 0.92 0.96 0.98 1.03 1.06 1.01 0.99 0.97 0.94 0.95 0.94
0.37 0.35 0.34 0.35 0.36 0.36 0.33 0.33 0.35 0.35 0.35 0.34 0.34 0.33 0.33 0.33 0.31 0.31 0.37 0.41 0.42 0.44 0.44 0.49 0.56 0.61 0.66 0.66 0.68 0.72 0.82 0.95 1.01 1.00 1.01 1.01 1.06 1.12 1.12 1.08 1.01 0.99 1.02 1.00
0.45 0.43 0.44 0.45 0.44 0.41 0.42 0.44 0.45 0.44 0.44 0.45 0.44 0.42 0.41 0.39 0.37 0.40 0.47 0.49 0.48 0.48 0.52 0.56 0.58 0.61 0.64 0.66 0.71 0.81 0.94 1.03 1.09 1.09 1.08 1.07 1.09 1.14 1.15 1.12 1.07 1.01 0.99 0.98
0.51 0.50 0.50 0.51 0.53 0.56 0.55 0.52 0.49 0.47 0.45 0.46 0.47 0.46 0.46 0.46 0.49 0.52 0.52 0.52 0.51 0.51 0.53 0.55 0.56 0.58 0.61 0.67 0.77 0.91 1.02 1.09 1.18 1.20 1.19 1.17 1.14 1.16 1.15 1.11 1.06 0.99 0.95 0.93
0.55 0.56 0.58 0.61 0.64 0.65 0.61 0.55 0.52 0.51 0.47 0.45 0.45 0.46 0.48 0.49 0.51 0.53 0.54 0.53 0.52 0.55 0.56 0.56 0.57 0.61 0.68 0.75 0.83 0.95 1.04 1.10 1.19 1.22 1.17 1.15 1.14 1.15 1.16 1.11 1.01 0.93 0.87 0.86
0.57 0.57 0.56 0.56 0.60 0.61 0.60 0.58 0.57 0.56 0.51 0.48 0.47 0.48 0.48 0.49 0.50 0.52 0.52 0.52 0.53 0.54 0.56 0.59 0.62 0.68 0.74 0.82 0.90 0.97 1.04 1.10 1.20 1.27 1.23 1.18 1.17 1.17 1.16 1.07 0.96 0.87 0.82 0.82

GEFSNGP_prec_meanprecacc_240.txt.gz
Total_Precipitation_Accumulation
0.34 0.29 0.38 0.44 0.44 0.45 0.60 0.58 0.45 0.27 0.20 0.22 0.20 0.20 0.19 0.17 0.14 0.11 0.10 0.08 0.08 0.11 0.13 0.14 0.14 0.14 0.17 0.24 0.31 0.50 0.72 0.91 0.92 0.88 0.94 1.00 1.00 1.07 1.14 1.20 1.27 1.40 1.51 1.63
0.28 0.18 0.25 0.31 0.27 0.30 0.33 0.35 0.31 0.23 0.26 0.21 0.20 0.17 0.18 0.18 0.16 0.15 0.13 0.12 0.09 0.10 0.13 0.14 0.14 0.14 0.17 0.20 0.26 0.39 0.57 0.77 0.88 0.87 0.91 0.99 0.98 1.04 1.12 1.20 1.26 1.38 1.43 1.45
0.44 0.20 0.40 0.56 0.36 0.33 0.33 0.33 0.33 0.33 0.32 0.25 0.23 0.21 0.21 0.19 0.18 0.19 0.18 0.15 0.13 0.12 0.14 0.14 0.14 0.15 0.18 0.19 0.21 0.30 0.45 0.63 0.78 0.81 0.81 0.87 0.90 0.99 1.08 1.18 1.19 1.24 1.28 1.26
0.72 0.53 0.89 0.60 0.28 0.29 0.35 0.38 0.35 0.34 0.30 0.28 0.27 0.26 0.22 0.19 0.20 0.21 0.20 0.18 0.17 0.16 0.16 0.15 0.14 0.15 0.16 0.18 0.20 0.25 0.36 0.52 0.70 0.76 0.75 0.75 0.80 0.85 0.95 1.07 1.14 1.11 1.11 1.10
1.07 0.79 0.54 0.31 0.19 0.29 0.40 0.45 0.36 0.28 0.23 0.22 0.22 0.22 0.22 0.19 0.15 0.15 0.17 0.17 0.16 0.19 0.21 0.19 0.17 0.16 0.18 0.19 0.20 0.24 0.36 0.48 0.61 0.73 0.72 0.69 0.74 0.78 0.83 0.90 0.99 0.99 0.97 1.03
1.28 0.96 0.56 0.34 0.16 0.19 0.34 0.52 0.31 0.23 0.20 0.20 0.23 0.29 0.25 0.17 0.10 0.08 0.09 0.12 0.13 0.14 0.17 0.19 0.20 0.20 0.21 0.24 0.24 0.26 0.39 0.50 0.56 0.64 0.67 0.64 0.69 0.76 0.78 0.80 0.86 0.88 0.85 0.90
1.08 0.87 0.43 0.23 0.14 0.19 0.48 0.57 0.27 0.20 0.18 0.19 0.26 0.30 0.20 0.12 0.10 0.08 0.08 0.09 0.11 0.12 0.14 0.18 0.20 0.21 0.22 0.25 0.29 0.30 0.39 0.46 0.51 0.57 0.60 0.59 0.67 0.70 0.75 0.78 0.79 0.81 0.77 0.81
0.87 0.96 0.52 0.21 0.21 0.42 0.51 0.25 0.17 0.15 0.14 0.15 0.17 0.14 0.12 0.11 0.10 0.09 0.08 0.08 0.09 0.11 0.13 0.15 0.17 0.19 0.21 0.26 0.32 0.35 0.37 0.40 0.48 0.54 0.56 0.57 0.68 0.68 0.68 0.75 0.79 0.79 0.78 0.81
0.71 0.61 0.39 0.28 0.33 0.33 0.26 0.20 0.14 0.13 0.12 0.14 0.15 0.14 0.13 0.13 0.11 0.11 0.09 0.08 0.08 0.10 0.12 0.13 0.15 0.17 0.19 0.24 0.31 0.39 0.38 0.39 0.46 0.54 0.60 0.63 0.68 0.70 0.70 0.72 0.76 0.79 0.79 0.77
0.45 0.33 0.28 0.27 0.24 0.19 0.15 0.15 0.13 0.13 0.14 0.16 0.16 0.15 0.16 0.15 0.14 0.14 0.13 0.10 0.09 0.10 0.13 0.15 0.18 0.19 0.20 0.24 0.30 0.39 0.40 0.40 0.45 0.51 0.60 0.62 0.67 0.68 0.71 0.74 0.83 0.87 0.83 0.79
0.38 0.28 0.22 0.19 0.18 0.18 0.15 0.12 0.11 0.12 0.13 0.15 0.16 0.16 0.16 0.17 0.17 0.17 0.16 0.12 0.10 0.10 0.13 0.17 0.20 0.21 0.20 0.24 0.31 0.39 0.42 0.42 0.44 0.48 0.60 0.63 0.66 0.68 0.71 0.70 0.89 1.04 0.93 0.92
0.34 0.25 0.29 0.23 0.19 0.18 0.17 0.15 0.14 0.14 0.14 0.13 0.15 0.16 0.16 0.19 0.20 0.19 0.17 0.14 0.12 0.11 0.12 0.16 0.21 0.23 0.22 0.25 0.31 0.39 0.45 0.46 0.46 0.49 0.60 0.64 0.66 0.70 0.74 0.75 0.79 0.81 0.85 0.94
0.23 0.17 0.19 0.20 0.19 0.17 0.18 0.18 0.18 0.18 0.17 0.17 0.16 0.16 0.18 0.20 0.20 0.20 0.18 0.16 0.15 0.15 0.15 0.18 0.22 0.24 0.26 0.27 0.29 0.38 0.47 0.50 0.50 0.51 0.60 0.65 0.61 0.65 0.68 0.69 0.72 0.75 0.77 0.82
0.19 0.19 0.19 0.19 0.20 0.19 0.17 0.17 0.18 0.17 0.17 0.17 0.17 0.17 0.19 0.19 0.20 0.19 0.18 0.18 0.16 0.15 0.15 0.18 0.21 0.24 0.28 0.29 0.27 0.34 0.44 0.50 0.52 0.54 0.60 0.63 0.61 0.61 0.60 0.66 0.71 0.74 0.78 0.84
0.17 0.19 0.20 0.19 0.18 0.17 0.15 0.14 0.15 0.17 0.17 0.16 0.15 0.16 0.17 0.18 0.18 0.17 0.16 0.16 0.15 0.14 0.14 0.15 0.18 0.22 0.26 0.27 0.28 0.35 0.46 0.53 0.55 0.59 0.63 0.63 0.62 0.63 0.60 0.62 0.65 0.70 0.77 0.92
0.17 0.15 0.15 0.16 0.16 0.16 0.16 0.16 0.17 0.19 0.20 0.19 0.18 0.20 0.20 0.18 0.16 0.15 0.15 0.14 0.15 0.15 0.15 0.16 0.18 0.23 0.27 0.27 0.29 0.34 0.44 0.60 0.65 0.67 0.67 0.67 0.65 0.64 0.64 0.64 0.66 0.70 0.78 0.91
0.22 0.17 0.15 0.16 0.16 0.17 0.18 0.19 0.20 0.22 0.23 0.22 0.24 0.24 0.22 0.19 0.16 0.15 0.16 0.16 0.16 0.17 0.18 0.19 0.22 0.25 0.29 0.29 0.32 0.38 0.47 0.58 0.68 0.70 0.70 0.72 0.71 0.68 0.67 0.69 0.71 0.72 0.77 0.91
0.24 0.22 0.21 0.22 0.23 0.21 0.20 0.19 0.20 0.22 0.23 0.24 0.24 0.25 0.24 0.22 0.20 0.19 0.19 0.18 0.17 0.16 0.19 0.22 0.26 0.28 0.29 0.30 0.37 0.43 0.53 0.63 0.71 0.78 0.81 0.81 0.81 0.74 0.74 0.74 0.73 0.75 0.77 0.87
0.21 0.21 0.21 0.21 0.22 0.22 0.23 0.24 0.23 0.21 0.20 0.20 0.20 0.22 0.23 0.23 0.21 0.20 0.19 0.18 0.19 0.22 0.24 0.27 0.30 0.28 0.30 0.36 0.47 0.52 0.60 0.69 0.77 0.83 0.86 0.91 0.89 0.81 0.79 0.78 0.78 0.79 0.82 0.88
0.23 0.22 0.22 0.21 0.20 0.21 0.22 0.24 0.23 0.20 0.19 0.19 0.19 0.19 0.20 0.21 0.22 0.23 0.22 0.22 0.25 0.31 0.33 0.34 0.33 0.33 0.40 0.48 0.59 0.62 0.66 0.75 0.84 0.89 0.91 0.92 0.93 0.93 0.90 0.86 0.86 0.86 0.88 0.91
0.26 0.24 0.23 0.21 0.20 0.20 0.22 0.24 0.25 0.23 0.21 0.21 0.23 0.23 0.23 0.23 0.24 0.24 0.25 0.28 0.30 0.33 0.36 0.37 0.37 0.44 0.56 0.65 0.65 0.64 0.70 0.81 0.88 0.91 0.94 0.97 0.99 0.97 0.96 0.93 0.91 0.91 0.92 0.91
0.30 0.28 0.26 0.25 0.25 0.26 0.26 0.27 0.29 0.28 0.26 0.25 0.25 0.26 0.26 0.27 0.25 0.26 0.30 0.38 0.41 0.42 0.40 0.39 0.45 0.56 0.67 0.69 0.64 0.67 0.75 0.86 0.92 0.93 0.96 0.98 1.03 1.06 1.02 0.99 0.97 0.95 0.95 0.94
0.38 0.36 0.35 0.36 0.37 0.37 0.34 0.34 0.36 0.36 0.36 0.35 0.35 0.33 0.34 0.34 0.32 0.32 0.38 0.42 0.44 0.45 0.45 0.50 0.57 0.62 0.66 0.67 0.68 0.72 0.83 0.96 1.02 1.01 1.01 1.02 1.06 1.12 1.12 1.08 1.02 1.00 1.02 1.01
0.46 0.44 0.45 0.46 0.45 0.42 0.43 0.46 0.46 0.45 0.45 0.46 0.46 0.44 0.42 0.39 0.37 0.41 0.48 0.50 0.49 0.49 0.53 0.58 0.59 0.62 0.65 0.66 0.72 0.82 0.95 1.04 1.09 1.09 1.09 1.08 1.10 1.15 1.16 1.13 1.08 1.01 1.00 0.99
0.52 0.51 0.50 0.51 0.54 0.57 0.56 0.53 0.50 0.48 0.47 0.48 0.48 0.47 0.46 0.46 0.50 0.53 0.53 0.53 0.52 0.52 0.53 0.56 0.57 0.59 0.61 0.68 0.78 0.92 1.03 1.10 1.19 1.21 1.19 1.17 1.15 1.16 1.16 1.12 1.06 1.00 0.95 0.94
0.56 0.56 0.59 0.62 0.65 0.66 0.63 0.57 0.54 0.52 0.49 0.46 0.47 0.47 0.48 0.50 0.52 0.54 0.54 0.54 0.53 0.55 0.57 0.57 0.58 0.62 0.68 0.75 0.84 0.96 1.05 1.11 1.20 1.22 1.18 1.16 1.14 1.15 1.16 1.12 1.02 0.94 0.88 0.87
0.58 0.58 0.57 0.57 0.61 0.63 0.62 0.60 0.59 0.57 0.52 0.49 0.48 0.48 0.49 0.50 0.51 0.53 0.52 0.52 0.54 0.55 0.57 0.60 0.62 0.68 0.75 0.82 0.90 0.98 1.05 1.11 1.21 1.28 1.23 1.19 1.18 1.18 1.16 1.08 0.96 0.88 0.82 0.83

GEFSNGP_prec_meanprecacc_246.txt.gz
Total_Precipitation_Accumulation
0.36 0.30 0.40 0.47 0.45 0.47 0.62 0.61 0.49 0.30 0.22 0.24 0.23 0.22 0.21 0.18 0.14 0.11 0.11 0.09 0.09 0.11 0.14 0.15 0.14 0.15 0.18 0.25 0.32 0.51 0.74 0.92 0.94 0.90 0.96 1.01 1.01 1.08 1.15 1.20 1.27 1.40 1.51 1.64
0.28 0.19 0.26 0.33 0.29 0.32 0.35 0.37 0.34 0.25 0.29 0.24 0.23 0.20 0.20 0.18 0.16 0.15 0.14 0.12 0.09 0.10 0.13 0.15 0.16 0.16 0.18 0.21 0.27 0.40 0.59 0.78 0.89 0.88 0.92 1.00 0.98 1.05 1.12 1.20 1.26 1.38 1.43 1.45
0.45 0.20 0.41 0.57 0.38 0.36 0.36 0.36 0.35 0.35 0.34 0.27 0.25 0.24 0.23 0.20 0.18 0.19 0.19 0.16 0.13 0.13 0.14 0.15 0.15 0.17 0.20 0.21 0.22 0.31 0.46 0.64 0.78 0.81 0.81 0.87 0.90 0.99 1.08 1.18 1.19 1.24 1.28 1.26
0.73 0.54 0.90 0.63 0.30 0.31 0.38 0.42 0.39 0.36 0.32 0.29 0.28 0.28 0.25 0.22 0.22 0.22 0.21 0.19 0.17 0.17 0.17 0.16 0.14 0.15 0.17 0.19 0.21 0.26 0.37 0.53 0.71 0.76 0.75 0.76 0.80 0.85 0.95 1.07 1.14 1.11 1.11 1.10
1.08 0.80 0.55 0.33 0.21 0.31 0.42 0.48 0.39 0.31 0.25 0.24 0.23 0.23 0.24 0.21 0.17 0.17 0.18 0.18 0.18 0.20 0.22 0.20 0.18 0.17 0.18 0.20 0.21 0.25 0.37 0.49 0.62 0.73 0.73 0.69 0.75 0.78 0.83 0.90 1.00 0.99 0.98 1.03
1.29 0.97 0.58 0.36 0.17 0.20 0.36 0.54 0.32 0.25 0.22 0.22 0.24 0.31 0.28 0.19 0.13 0.10 0.11 0.13 0.14 0.15 0.18 0.19 0.20 0.20 0.21 0.25 0.25 0.28 0.40 0.51 0.56 0.65 0.67 0.64 0.70 0.77 0.79 0.80 0.86 0.88 0.85 0.90
1.09 0.89 0.44 0.24 0.14 0.19 0.49 0.59 0.29 0.22 0.20 0.21 0.28 0.32 0.23 0.14 0.12 0.09 0.09 0.10 0.11 0.13 0.15 0.18 0.21 0.22 0.23 0.26 0.30 0.32 0.40 0.47 0.52 0.57 0.61 0.60 0.67 0.70 0.75 0.78 0.80 0.81 0.78 0.81
0.88 0.97 0.53 0.22 0.21 0.44 0.53 0.26 0.19 0.17 0.16 0.17 0.18 0.16 0.13 0.12 0.11 0.10 0.09 0.09 0.10 0.12 0.13 0.15 0.18 0.20 0.21 0.27 0.33 0.37 0.39 0.42 0.49 0.55 0.57 0.58 0.68 0.68 0.68 0.75 0.79 0.79 0.78 0.82
0.72 0.64 0.41 0.30 0.34 0.35 0.28 0.21 0.16 0.15 0.14 0.16 0.16 0.15 0.14 0.14 0.12 0.12 0.10 0.09 0.09 0.11 0.13 0.14 0.17 0.19 0.21 0.25 0.32 0.41 0.41 0.42 0.47 0.55 0.61 0.63 0.69 0.71 0.71 0.72 0.76 0.79 0.80 0.77
0.47 0.36 0.30 0.28 0.25 0.20 0.16 0.16 0.15 0.15 0.16 0.17 0.17 0.16 0.16 0.16 0.15 0.15 0.14 0.12 0.11 0.12 0.15 0.17 0.20 0.21 0.23 0.26 0.33 0.42 0.42 0.43 0.47 0.53 0.62 0.64 0.68 0.70 0.72 0.75 0.84 0.88 0.84 0.79
0.39 0.29 0.23 0.19 0.19 0.19 0.16 0.13 0.12 0.13 0.14 0.16 0.17 0.17 0.17 0.18 0.18 0.18 0.17 0.14 0.12 0.12 0.15 0.19 0.22 0.23 0.23 0.26 0.34 0.42 0.45 0.44 0.46 0.50 0.61 0.65 0.67 0.70 0.73 0.71 0.90 1.04 0.94 0.93
0.34 0.26 0.29 0.24 0.19 0.18 0.18 0.16 0.14 0.15 0.15 0.14 0.15 0.17 0.18 0.20 0.21 0.20 0.19 0.16 0.14 0.14 0.15 0.19 0.23 0.25 0.25 0.27 0.33 0.42 0.47 0.49 0.48 0.51 0.61 0.65 0.67 0.72 0.76 0.76 0.80 0.82 0.86 0.94
0.24 0.17 0.20 0.21 0.20 0.18 0.19 0.18 0.18 0.18 0.18 0.18 0.17 0.17 0.19 0.21 0.21 0.21 0.19 0.18 0.17 0.18 0.18 0.21 0.24 0.27 0.29 0.30 0.31 0.40 0.49 0.52 0.52 0.52 0.61 0.66 0.62 0.67 0.70 0.71 0.74 0.76 0.78 0.82
0.19 0.19 0.20 0.19 0.21 0.20 0.18 0.18 0.18 0.18 0.17 0.18 0.18 0.18 0.19 0.20 0.21 0.20 0.19 0.20 0.18 0.18 0.18 0.21 0.23 0.26 0.30 0.31 0.30 0.36 0.46 0.52 0.54 0.55 0.61 0.65 0.62 0.62 0.62 0.68 0.72 0.75 0.79 0.85
0.17 0.20 0.21 0.19 0.19 0.17 0.15 0.15 0.16 0.17 0.17 0.17 0.16 0.17 0.18 0.19 0.19 0.18 0.17 0.18 0.18 0.17 0.17 0.18 0.20 0.24 0.28 0.29 0.30 0.38 0.49 0.55 0.57 0.61 0.64 0.64 0.63 0.63 0.61 0.62 0.66 0.70 0.78 0.93
0.18 0.15 0.15 0.16 0.17 0.17 0.16 0.16 0.17 0.20 0.21 0.20 0.19 0.21 0.22 0.19 0.17 0.17 0.16 0.16 0.17 0.18 0.18 0.19 0.21 0.26 0.29 0.29 0.30 0.37 0.47 0.62 0.68 0.69 0.69 0.68 0.66 0.65 0.64 0.64 0.66 0.70 0.78 0.91
0.22 0.17 0.15 0.16 0.16 0.18 0.19 0.19 0.21 0.23 0.24 0.24 0.25 0.25 0.24 0.20 0.17 0.17 0.18 0.18 0.18 0.20 0.20 0.22 0.24 0.28 0.31 0.31 0.35 0.40 0.50 0.60 0.70 0.72 0.73 0.74 0.73 0.69 0.68 0.70 0.72 0.73 0.77 0.91
0.24 0.22 0.21 0.23 0.23 0.21 0.21 0.20 0.21 0.23 0.25 0.25 0.26 0.26 0.25 0.23 0.21 0.21 0.21 0.20 0.19 0.19 0.21 0.25 0.28 0.30 0.31 0.33 0.39 0.46 0.56 0.65 0.73 0.80 0.82 0.83 0.83 0.76 0.75 0.76 0.73 0.75 0.77 0.87
0.21 0.21 0.21 0.22 0.22 0.23 0.24 0.25 0.23 0.22 0.21 0.21 0.21 0.23 0.24 0.24 0.23 0.22 0.21 0.20 0.21 0.24 0.27 0.29 0.32 0.30 0.32 0.39 0.49 0.55 0.62 0.71 0.79 0.85 0.87 0.93 0.90 0.82 0.80 0.79 0.79 0.80 0.83 0.89
0.23 0.23 0.23 0.22 0.20 0.22 0.23 0.25 0.24 0.21 0.20 0.21 0.21 0.21 0.22 0.24 0.25 0.25 0.24 0.24 0.28 0.33 0.35 0.37 0.35 0.35 0.42 0.50 0.61 0.64 0.68 0.77 0.85 0.90 0.92 0.93 0.94 0.94 0.91 0.87 0.86 0.87 0.89 0.92
0.26 0.24 0.23 0.22 0.20 0.21 0.22 0.25 0.26 0.24 0.22 0.23 0.25 0.25 0.25 0.26 0.26 0.27 0.27 0.30 0.32 0.35 0.38 0.39 0.39 0.46 0.59 0.67 0.67 0.66 0.72 0.82 0.89 0.92 0.95 0.98 1.00 0.99 0.97 0.94 0.92 0.92 0.93 0.92
0.31 0.29 0.27 0.26 0.26 0.27 0.27 0.28 0.30 0.29 0.27 0.27 0.27 0.28 0.29 0.29 0.28 0.28 0.32 0.40 0.44 0.44 0.42 0.41 0.47 0.58 0.69 0.71 0.66 0.68 0.76 0.87 0.94 0.94 0.97 0.99 1.04 1.07 1.03 1.00 0.98 0.96 0.96 0.95
0.38 0.37 0.36 0.36 0.38 0.38 0.35 0.35 0.37 0.37 0.37 0.37 0.36 0.35 0.36 0.36 0.34 0.34 0.40 0.44 0.46 0.47 0.47 0.52 0.59 0.64 0.68 0.68 0.70 0.73 0.84 0.96 1.03 1.02 1.02 1.03 1.07 1.13 1.13 1.09 1.03 1.01 1.03 1.02
0.47 0.45 0.45 0.47 0.45 0.43 0.44 0.46 0.46 0.46 0.46 0.47 0.47 0.45 0.43 0.41 0.39 0.42 0.49 0.52 0.51 0.51 0.54 0.59 0.61 0.63 0.66 0.67 0.73 0.83 0.95 1.05 1.10 1.10 1.09 1.08 1.11 1.16 1.16 1.14 1.09 1.02 1.01 1.00
0.53 0.52 0.51 0.52 0.55 0.58 0.57 0.54 0.50 0.49 0.47 0.49 0.49 0.48 0.48 0.48 0.51 0.54 0.54 0.54 0.53 0.53 0.54 0.57 0.58 0.60 0.62 0.69 0.79 0.93 1.04 1.11 1.20 1.21 1.20 1.18 1.15 1.17 1.17 1.13 1.07 1.00 0.96 0.95
0.56 0.57 0.59 0.62 0.66 0.67 0.63 0.57 0.54 0.53 0.50 0.48 0.48 0.49 0.50 0.51 0.53 0.55 0.56 0.55 0.55 0.57 0.58 0.58 0.59 0.63 0.69 0.76 0.85 0.97 1.05 1.12 1.21 1.23 1.19 1.16 1.15 1.16 1.17 1.13 1.03 0.95 0.89 0.87
0.58 0.58 0.57 0.57 0.61 0.64 0.63 0.61 0.60 0.58 0.53 0.50 0.50 0.50 0.51 0.51 0.52 0.54 0.54 0.54 0.55 0.57 0.59 0.61 0.64 0.70 0.76 0.83 0.91 0.98 1.05 1.12 1.22 1.29 1.24 1.20 1.19 1.19 1.17 1.09 0.97 0.89 0.83 0.83

GEFSNGP_prec_meanprecacc_252.txt.gz
Total_Precipitation_Accumulation
0.36 0.31 0.42 0.49 0.47 0.48 0.64 0.63 0.51 0.31 0.23 0.25 0.24 0.23 0.22 0.19 0.15 0.12 0.11 0.09 0.09 0.11 0.14 0.15 0.15 0.15 0.19 0.27 0.34 0.53 0.76 0.94 0.96 0.92 0.98 1.04 1.04 1.12 1.18 1.22 1.29 1.42 1.53 1.65
0.29 0.20 0.27 0.34 0.30 0.34 0.38 0.39 0.35 0.26 0.30 0.26 0.24 0.21 0.21 0.20 0.17 0.15 0.14 0.12 0.10 0.10 0.14 0.16 0.16 0.16 0.19 0.23 0.29 0.42 0.61 0.80 0.91 0.90 0.94 1.01 1.00 1.07 1.15 1.22 1.27 1.39 1.45 1.47
0.46 0.21 0.42 0.59 0.41 0.38 0.38 0.38 0.37 0.37 0.36 0.28 0.26 0.24 0.24 0.22 0.20 0.21 0.20 0.16 0.14 0.13 0.15 0.16 0.16 0.17 0.20 0.22 0.24 0.33 0.48 0.65 0.79 0.82 0.82 0.88 0.91 1.01 1.11 1.20 1.20 1.25 1.29 1.27
0.73 0.55 0.91 0.65 0.33 0.33 0.40 0.44 0.41 0.38 0.34 0.31 0.29 0.29 0.26 0.23 0.23 0.24 0.22 0.20 0.18 0.18 0.18 0.17 0.15 0.16 0.17 0.20 0.22 0.27 0.38 0.54 0.72 0.77 0.76 0.76 0.81 0.87 0.97 1.09 1.15 1.12 1.12 1.11
1.09 0.81 0.56 0.34 0.22 0.33 0.44 0.50 0.42 0.32 0.26 0.25 0.25 0.24 0.25 0.22 0.18 0.18 0.20 0.20 0.19 0.21 0.22 0.21 0.18 0.18 0.19 0.21 0.22 0.26 0.38 0.50 0.63 0.74 0.73 0.70 0.75 0.79 0.84 0.91 1.01 1.00 0.99 1.05
1.30 0.98 0.59 0.38 0.18 0.21 0.38 0.56 0.34 0.26 0.23 0.23 0.26 0.32 0.29 0.20 0.14 0.11 0.12 0.14 0.15 0.17 0.18 0.20 0.21 0.21 0.22 0.25 0.26 0.29 0.42 0.52 0.57 0.66 0.69 0.66 0.71 0.78 0.79 0.81 0.86 0.89 0.86 0.91
1.10 0.89 0.44 0.25 0.15 0.20 0.50 0.61 0.30 0.23 0.21 0.22 0.29 0.33 0.24 0.15 0.13 0.10 0.10 0.11 0.12 0.14 0.16 0.19 0.21 0.22 0.23 0.27 0.31 0.33 0.42 0.48 0.53 0.58 0.62 0.61 0.68 0.71 0.76 0.79 0.80 0.82 0.78 0.81
0.89 0.98 0.54 0.22 0.22 0.45 0.54 0.27 0.20 0.18 0.17 0.19 0.20 0.17 0.14 0.13 0.12 0.11 0.10 0.09 0.10 0.12 0.14 0.16 0.18 0.20 0.22 0.27 0.34 0.38 0.41 0.43 0.50 0.56 0.59 0.59 0.69 0.69 0.70 0.76 0.80 0.80 0.79 0.82
0.73 0.64 0.42 0.30 0.35 0.36 0.29 0.23 0.17 0.16 0.16 0.17 0.18 0.16 0.16 0.15 0.13 0.12 0.11 0.09 0.10 0.12 0.13 0.14 0.17 0.19 0.21 0.26 0.33 0.42 0.43 0.44 0.49 0.58 0.64 0.66 0.72 0.73 0.73 0.73 0.77 0.80 0.80 0.78
0.47 0.36 0.30 0.28 0.25 0.21 0.17 0.17 0.16 0.16 0.17 0.19 0.19 0.17 0.18 0.17 0.16 0.15 0.14 0.12 0.11 0.13 0.15 0.18 0.20 0.21 0.24 0.27 0.34 0.44 0.45 0.46 0.50 0.56 0.65 0.67 0.71 0.73 0.75 0.78 0.86 0.89 0.85 0.79
0.39 0.29 0.23 0.19 0.19 0.19 0.16 0.14 0.13 0.14 0.15 0.17 0.18 0.18 0.18 0.19 0.19 0.19 0.17 0.14 0.13 0.13 0.16 0.20 0.23 0.24 0.23 0.27 0.35 0.44 0.48 0.48 0.50 0.53 0.65 0.68 0.71 0.74 0.77 0.76 0.94 1.07 0.96 0.94
0.34 0.26 0.29 0.24 0.19 0.19 0.19 0.16 0.15 0.16 0.16 0.16 0.17 0.18 0.19 0.22 0.22 0.21 0.19 0.16 0.15 0.14 0.16 0.20 0.24 0.26 0.26 0.28 0.35 0.44 0.51 0.53 0.52 0.54 0.65 0.68 0.71 0.76 0.80 0.81 0.85 0.86 0.89 0.97
0.25 0.18 0.20 0.21 0.20 0.18 0.19 0.19 0.19 0.20 0.20 0.20 0.18 0.18 0.20 0.22 0.22 0.22 0.20 0.19 0.18 0.19 0.19 0.22 0.26 0.28 0.30 0.31 0.34 0.42 0.52 0.55 0.55 0.55 0.64 0.69 0.65 0.70 0.73 0.74 0.77 0.80 0.81 0.85
0.20 0.20 0.20 0.19 0.21 0.20 0.18 0.18 0.19 0.19 0.18 0.19 0.19 0.20 0.21 0.22 0.22 0.21 0.20 0.21 0.19 0.19 0.20 0.23 0.25 0.28 0.33 0.33 0.32 0.39 0.48 0.54 0.56 0.58 0.63 0.67 0.65 0.65 0.64 0.70 0.75 0.79 0.83 0.87
0.18 0.20 0.21 0.19 0.19 0.17 0.16 0.15 0.16 0.18 0.18 0.18 0.17 0.18 0.20 0.20 0.20 0.19 0.19 0.20 0.19 0.19 0.19 0.20 0.23 0.27 0.31 0.31 0.33 0.40 0.51 0.57 0.59 0.63 0.66 0.67 0.65 0.65 0.63 0.64 0.68 0.73 0.81 0.95
0.18 0.15 0.15 0.16 0.17 0.17 0.16 0.16 0.18 0.21 0.21 0.21 0.20 0.22 0.23 0.20 0.18 0.17 0.17 0.17 0.19 0.20 0.21 0.21 0.24 0.29 0.32 0.31 0.32 0.39 0.50 0.66 0.71 0.72 0.72 0.70 0.68 0.66 0.66 0.66 0.68 0.72 0.80 0.93
0.23 0.17 0.16 0.16 0.17 0.18 0.19 0.20 0.21 0.24 0.24 0.25 0.27 0.27 0.25 0.21 0.18 0.18 0.19 0.19 0.20 0.22 0.23 0.24 0.27 0.30 0.33 0.33 0.37 0.43 0.53 0.63 0.74 0.76 0.76 0.76 0.75 0.71 0.70 0.72 0.73 0.74 0.79 0.93
0.25 0.22 0.21 0.23 0.23 0.22 0.21 0.20 0.21 0.23 0.25 0.26 0.27 0.27 0.27 0.24 0.22 0.22 0.22 0.21 0.21 0.21 0.24 0.27 0.31 0.32 0.33 0.35 0.42 0.48 0.58 0.68 0.75 0.84 0.86 0.87 0.86 0.79 0.78 0.78 0.75 0.77 0.79 0.89
0.21 0.22 0.21 0.22 0.23 0.23 0.24 0.25 0.24 0.23 0.22 0.22 0.23 0.24 0.25 0.25 0.24 0.23 0.23 0.22 0.23 0.27 0.30 0.32 0.34 0.32 0.33 0.40 0.51 0.56 0.65 0.74 0.81 0.87 0.90 0.96 0.94 0.86 0.83 0.81 0.80 0.81 0.84 0.90
0.23 0.23 0.23 0.22 0.20 0.22 0.23 0.25 0.25 0.22 0.21 0.22 0.22 0.22 0.23 0.25 0.26 0.26 0.26 0.26 0.30 0.36 0.38 0.39 0.37 0.37 0.43 0.51 0.62 0.65 0.70 0.79 0.87 0.92 0.95 0.96 0.98 0.98 0.94 0.89 0.88 0.88 0.90 0.93
0.26 0.25 0.24 0.22 0.20 0.21 0.23 0.25 0.27 0.25 0.23 0.24 0.26 0.26 0.27 0.27 0.28 0.28 0.29 0.32 0.35 0.38 0.40 0.41 0.40 0.48 0.60 0.69 0.68 0.67 0.73 0.84 0.91 0.94 0.97 1.00 1.02 1.01 0.99 0.96 0.93 0.93 0.94 0.93
0.31 0.29 0.27 0.26 0.26 0.27 0.28 0.29 0.30 0.30 0.28 0.28 0.29 0.29 0.30 0.31 0.30 0.30 0.34 0.42 0.46 0.46 0.43 0.43 0.48 0.60 0.71 0.73 0.68 0.70 0.78 0.89 0.96 0.96 0.99 1.01 1.06 1.09 1.04 1.02 1.00 0.97 0.97 0.96
0.38 0.37 0.36 0.37 0.38 0.38 0.35 0.35 0.37 0.37 0.38 0.38 0.37 0.36 0.37 0.38 0.36 0.36 0.43 0.47 0.48 0.49 0.49 0.54 0.61 0.66 0.70 0.70 0.72 0.76 0.86 0.99 1.05 1.04 1.04 1.05 1.09 1.14 1.15 1.10 1.04 1.02 1.05 1.03
0.47 0.45 0.46 0.47 0.46 0.43 0.44 0.47 0.47 0.46 0.47 0.48 0.48 0.47 0.45 0.43 0.42 0.45 0.52 0.54 0.53 0.53 0.56 0.62 0.63 0.65 0.68 0.69 0.75 0.85 0.98 1.07 1.12 1.12 1.11 1.10 1.12 1.17 1.18 1.15 1.10 1.04 1.02 1.01
0.53 0.52 0.52 0.52 0.55 0.58 0.58 0.54 0.51 0.49 0.48 0.50 0.51 0.50 0.50 0.50 0.54 0.57 0.57 0.56 0.55 0.55 0.56 0.59 0.60 0.62 0.64 0.70 0.80 0.95 1.06 1.13 1.21 1.23 1.21 1.19 1.17 1.18 1.18 1.14 1.09 1.02 0.97 0.96
0.57 0.58 0.60 0.63 0.67 0.68 0.64 0.58 0.55 0.54 0.51 0.49 0.50 0.51 0.52 0.53 0.56 0.58 0.58 0.57 0.56 0.58 0.60 0.60 0.60 0.64 0.71 0.78 0.87 0.99 1.07 1.14 1.22 1.24 1.20 1.18 1.16 1.17 1.18 1.14 1.04 0.96 0.90 0.89
0.59 0.59 0.58 0.58 0.62 0.64 0.63 0.61 0.60 0.59 0.54 0.51 0.51 0.51 0.53 0.53 0.54 0.56 0.56 0.56 0.57 0.58 0.60 0.63 0.65 0.71 0.77 0.85 0.93 1.00 1.07 1.13 1.23 1.29 1.25 1.21 1.20 1.20 1.18 1.10 0.99 0.90 0.84 0.84

GEFSNGP_prec_meanprecacc_258.txt.gz
Total_Precipitation_Accumulation
0.37 0.32 0.42 0.50 0.48 0.50 0.65 0.64 0.53 0.32 0.25 0.27 0.25 0.24 0.24 0.22 0.18 0.13 0.12 0.11 0.11 0.14 0.17 0.18 0.19 0.19 0.23 0.31 0.38 0.57 0.80 0.99 0.99 0.94 1.00 1.06 1.06 1.14 1.20 1.24 1.30 1.43 1.54 1.67
0.30 0.20 0.28 0.35 0.31 0.36 0.39 0.41 0.37 0.28 0.32 0.28 0.26 0.22 0.22 0.23 0.21 0.18 0.16 0.15 0.12 0.13 0.16 0.19 0.20 0.20 0.24 0.27 0.34 0.47 0.66 0.85 0.95 0.94 0.97 1.04 1.02 1.09 1.17 1.23 1.28 1.40 1.45 1.47
0.47 0.21 0.42 0.60 0.42 0.40 0.40 0.41 0.39 0.38 0.38 0.30 0.28 0.27 0.26 0.25 0.24 0.24 0.22 0.19 0.16 0.16 0.17 0.18 0.19 0.21 0.24 0.26 0.28 0.37 0.52 0.70 0.84 0.86 0.86 0.91 0.93 1.02 1.12 1.21 1.21 1.26 1.30 1.28
0.74 0.55 0.92 0.66 0.34 0.35 0.42 0.47 0.43 0.40 0.36 0.33 0.32 0.32 0.29 0.26 0.28 0.28 0.25 0.22 0.20 0.20 0.19 0.18 0.17 0.18 0.20 0.23 0.26 0.31 0.42 0.57 0.75 0.80 0.80 0.80 0.83 0.89 0.99 1.10 1.16 1.13 1.13 1.11
1.10 0.82 0.57 0.35 0.24 0.35 0.46 0.52 0.44 0.35 0.29 0.28 0.28 0.27 0.28 0.26 0.23 0.24 0.23 0.22 0.21 0.23 0.24 0.22 0.20 0.20 0.21 0.23 0.25 0.29 0.41 0.52 0.65 0.76 0.76 0.73 0.78 0.81 0.86 0.93 1.02 1.01 1.00 1.05
1.31 0.98 0.59 0.38 0.19 0.22 0.39 0.58 0.36 0.29 0.26 0.26 0.28 0.35 0.32 0.24 0.18 0.16 0.16 0.16 0.17 0.18 0.20 0.21 0.22 0.22 0.23 0.27 0.28 0.30 0.43 0.53 0.58 0.67 0.70 0.67 0.73 0.79 0.81 0.83 0.87 0.90 0.87 0.92
1.10 0.90 0.45 0.25 0.16 0.21 0.51 0.62 0.31 0.25 0.23 0.24 0.32 0.36 0.27 0.18 0.16 0.14 0.14 0.14 0.14 0.15 0.18 0.21 0.22 0.23 0.24 0.28 0.32 0.34 0.43 0.49 0.54 0.59 0.63 0.62 0.70 0.72 0.77 0.81 0.81 0.82 0.79 0.82
0.89 0.98 0.54 0.23 0.22 0.46 0.56 0.28 0.21 0.19 0.19 0.20 0.21 0.19 0.16 0.16 0.14 0.14 0.14 0.13 0.13 0.14 0.16 0.17 0.20 0.21 0.22 0.28 0.35 0.38 0.41 0.44 0.51 0.58 0.60 0.61 0.71 0.71 0.71 0.78 0.81 0.81 0.80 0.83
0.73 0.65 0.43 0.31 0.36 0.37 0.30 0.24 0.18 0.18 0.17 0.19 0.19 0.18 0.18 0.18 0.15 0.15 0.14 0.13 0.13 0.14 0.15 0.16 0.18 0.20 0.22 0.27 0.34 0.43 0.43 0.44 0.50 0.59 0.66 0.68 0.74 0.76 0.75 0.75 0.78 0.81 0.82 0.79
0.47 0.36 0.31 0.29 0.26 0.22 0.18 0.18 0.17 0.17 0.19 0.20 0.20 0.19 0.20 0.19 0.18 0.17 0.16 0.14 0.14 0.14 0.17 0.19 0.22 0.23 0.25 0.28 0.35 0.45 0.46 0.47 0.51 0.58 0.68 0.71 0.74 0.76 0.78 0.80 0.88 0.91 0.87 0.81
0.39 0.29 0.24 0.20 0.20 0.20 0.17 0.15 0.14 0.15 0.17 0.19 0.19 0.19 0.19 0.20 0.21 0.20 0.18 0.15 0.14 0.15 0.18 0.21 0.24 0.25 0.25 0.28 0.36 0.45 0.49 0.49 0.51 0.55 0.68 0.72 0.75 0.78 0.81 0.79 0.97 1.10 0.98 0.96
0.34 0.26 0.30 0.24 0.20 0.19 0.19 0.17 0.16 0.17 0.17 0.17 0.18 0.19 0.20 0.22 0.22 0.21 0.19 0.17 0.15 0.15 0.16 0.21 0.25 0.27 0.27 0.29 0.36 0.45 0.52 0.55 0.54 0.56 0.67 0.71 0.75 0.81 0.85 0.85 0.89 0.90 0.93 1.00
0.25 0.18 0.21 0.22 0.20 0.19 0.20 0.20 0.20 0.20 0.21 0.21 0.19 0.19 0.21 0.23 0.23 0.23 0.20 0.19 0.19 0.19 0.20 0.23 0.27 0.30 0.32 0.33 0.35 0.43 0.53 0.57 0.58 0.58 0.66 0.72 0.68 0.74 0.77 0.78 0.81 0.84 0.85 0.90
0.20 0.20 0.20 0.19 0.21 0.20 0.19 0.19 0.20 0.20 0.20 0.20 0.20 0.21 0.22 0.23 0.23 0.21 0.21 0.22 0.20 0.19 0.21 0.24 0.26 0.30 0.34 0.35 0.33 0.40 0.50 0.55 0.58 0.61 0.66 0.69 0.67 0.67 0.67 0.73 0.78 0.82 0.86 0.91
0.18 0.20 0.21 0.20 0.19 0.18 0.16 0.16 0.17 0.19 0.19 0.19 0.18 0.19 0.21 0.21 0.21 0.20 0.20 0.20 0.20 0.19 0.20 0.21 0.24 0.29 0.33 0.33 0.34 0.42 0.53 0.59 0.62 0.66 0.69 0.69 0.67 0.68 0.65 0.66 0.70 0.75 0.83 0.98
0.18 0.15 0.15 0.16 0.17 0.17 0.17 0.17 0.18 0.21 0.22 0.21 0.21 0.23 0.24 0.22 0.19 0.19 0.18 0.18 0.20 0.21 0.22 0.23 0.26 0.31 0.34 0.33 0.34 0.41 0.51 0.68 0.74 0.75 0.74 0.73 0.71 0.69 0.68 0.68 0.70 0.74 0.83 0.96
0.23 0.18 0.16 0.16 0.17 0.18 0.19 0.20 0.21 0.24 0.25 0.25 0.27 0.28 0.26 0.22 0.19 0.19 0.19 0.20 0.21 0.23 0.24 0.26 0.29 0.33 0.35 0.35 0.39 0.45 0.54 0.65 0.76 0.78 0.78 0.79 0.78 0.74 0.72 0.74 0.75 0.76 0.81 0.96
0.25 0.23 0.22 0.23 0.24 0.22 0.21 0.21 0.21 0.24 0.26 0.27 0.28 0.28 0.28 0.25 0.24 0.23 0.23 0.22 0.22 0.22 0.25 0.29 0.33 0.35 0.35 0.37 0.44 0.50 0.60 0.69 0.77 0.85 0.88 0.89 0.89 0.82 0.80 0.80 0.77 0.79 0.82 0.92
0.22 0.22 0.21 0.22 0.23 0.23 0.24 0.25 0.24 0.23 0.23 0.23 0.23 0.25 0.26 0.27 0.25 0.25 0.24 0.23 0.24 0.28 0.32 0.34 0.36 0.34 0.36 0.42 0.53 0.58 0.66 0.75 0.83 0.89 0.92 0.99 0.96 0.88 0.85 0.83 0.82 0.82 0.86 0.92
0.23 0.23 0.23 0.22 0.21 0.22 0.24 0.25 0.25 0.22 0.21 0.23 0.23 0.23 0.24 0.26 0.27 0.28 0.28 0.28 0.32 0.39 0.40 0.41 0.38 0.39 0.45 0.53 0.64 0.67 0.72 0.81 0.89 0.94 0.96 0.98 1.00 0.99 0.96 0.91 0.90 0.90 0.92 0.95
0.27 0.25 0.24 0.22 0.21 0.21 0.23 0.25 0.27 0.25 0.23 0.24 0.27 0.27 0.27 0.28 0.29 0.30 0.31 0.34 0.37 0.40 0.42 0.43 0.42 0.50 0.62 0.71 0.70 0.69 0.75 0.86 0.93 0.96 0.99 1.03 1.05 1.03 1.01 0.98 0.95 0.95 0.96 0.95
0.31 0.29 0.27 0.26 0.26 0.27 0.28 0.29 0.31 0.30 0.28 0.29 0.29 0.30 0.31 0.32 0.31 0.32 0.36 0.44 0.49 0.49 0.45 0.45 0.50 0.62 0.73 0.75 0.70 0.72 0.80 0.91 0.98 0.98 1.02 1.03 1.08 1.11 1.07 1.04 1.02 0.99 0.99 0.98
0.38 0.37 0.36 0.37 0.38 0.38 0.35 0.36 0.38 0.38 0.38 0.38 0.38 0.37 0.38 0.39 0.37 0.37 0.44 0.49 0.50 0.51 0.51 0.56 0.63 0.68 0.72 0.72 0.74 0.78 0.88 1.01 1.07 1.06 1.06 1.07 1.11 1.17 1.17 1.13 1.06 1.04 1.06 1.04
0.47 0.45 0.46 0.47 0.46 0.43 0.45 0.47 0.47 0.47 0.48 0.49 0.49 0.48 0.46 0.44 0.43 0.47 0.54 0.56 0.55 0.55 0.58 0.64 0.65 0.67 0.70 0.72 0.77 0.88 1.00 1.10 1.14 1.14 1.13 1.12 1.15 1.20 1.20 1.17 1.13 1.06 1.04 1.02
0.53 0.52 0.52 0.53 0.56 0.59 0.58 0.55 0.51 0.50 0.49 0.51 0.52 0.52 0.52 0.51 0.56 0.60 0.59 0.58 0.57 0.57 0.59 0.61 0.63 0.65 0.67 0.73 0.83 0.97 1.08 1.16 1.24 1.26 1.24 1.22 1.19 1.21 1.21 1.17 1.11 1.03 0.99 0.98
0.57 0.58 0.60 0.63 0.67 0.68 0.64 0.58 0.56 0.55 0.52 0.50 0.51 0.52 0.54 0.55 0.58 0.59 0.60 0.59 0.58 0.60 0.62 0.62 0.63 0.67 0.73 0.80 0.89 1.01 1.09 1.16 1.25 1.27 1.23 1.20 1.19 1.19 1.20 1.16 1.06 0.98 0.91 0.90
0.59 0.59 0.58 0.58 0.62 0.65 0.64 0.62 0.61 0.60 0.55 0.52 0.53 0.53 0.55 0.55 0.56 0.58 0.57 0.57 0.59 0.60 0.62 0.65 0.67 0.73 0.79 0.86 0.94 1.02 1.09 1.15 1.25 1.32 1.27 1.23 1.22 1.22 1.20 1.11 1.00 0.92 0.86 0.85

GEFSNGP_prec_meanprecacc_264.txt.gz
Total_Precipitation_Accumulation
0.37 0.32 0.43 0.51 0.49 0.50 0.67 0.66 0.56 0.35 0.26 0.29 0.27 0.26 0.25 0.23 0.20 0.17 0.16 0.15 0.14 0.17 0.20 0.22 0.22 0.23 0.27 0.38 0.44 0.63 0.86 1.04 1.05 1.02 1.08 1.12 1.11 1.17 1.22 1.26 1.33 1.45 1.56 1.69
0.30 0.21 0.28 0.35 0.32 0.36 0.40 0.42 0.39 0.29 0.34 0.30 0.28 0.24 0.24 0.24 0.23 0.21 0.20 0.18 0.15 0.16 0.19 0.23 0.23 0.24 0.28 0.34 0.40 0.53 0.73 0.92 1.02 1.01 1.04 1.10 1.07 1.12 1.20 1.25 1.30 1.42 1.47 1.49
0.47 0.22 0.43 0.61 0.44 0.41 0.41 0.42 0.40 0.40 0.39 0.31 0.29 0.28 0.28 0.27 0.27 0.27 0.26 0.23 0.20 0.20 0.21 0.23 0.23 0.25 0.29 0.33 0.36 0.45 0.61 0.78 0.90 0.94 0.93 0.96 0.98 1.07 1.16 1.24 1.23 1.28 1.32 1.30
0.75 0.56 0.94 0.67 0.35 0.37 0.43 0.48 0.44 0.41 0.37 0.34 0.33 0.33 0.31 0.29 0.31 0.31 0.29 0.26 0.24 0.25 0.25 0.24 0.22 0.24 0.26 0.29 0.34 0.39 0.50 0.65 0.82 0.88 0.87 0.86 0.88 0.94 1.03 1.13 1.19 1.16 1.16 1.14
1.11 0.83 0.58 0.36 0.24 0.36 0.48 0.53 0.45 0.36 0.30 0.29 0.29 0.28 0.30 0.28 0.26 0.28 0.28 0.26 0.26 0.28 0.31 0.28 0.24 0.24 0.26 0.29 0.32 0.37 0.49 0.60 0.72 0.83 0.84 0.80 0.84 0.86 0.91 0.97 1.05 1.04 1.03 1.08
1.33 1.00 0.60 0.39 0.19 0.23 0.41 0.59 0.38 0.30 0.27 0.28 0.30 0.37 0.34 0.26 0.21 0.21 0.20 0.20 0.22 0.25 0.27 0.25 0.25 0.26 0.28 0.33 0.34 0.37 0.49 0.59 0.65 0.74 0.77 0.74 0.78 0.84 0.86 0.86 0.90 0.92 0.89 0.93
1.12 0.91 0.45 0.26 0.16 0.21 0.53 0.64 0.33 0.27 0.25 0.26 0.34 0.38 0.30 0.22 0.20 0.20 0.20 0.19 0.20 0.22 0.23 0.23 0.25 0.26 0.29 0.33 0.37 0.39 0.47 0.54 0.59 0.65 0.68 0.67 0.74 0.75 0.80 0.83 0.84 0.84 0.80 0.83
0.91 1.00 0.55 0.23 0.23 0.47 0.57 0.29 0.22 0.20 0.20 0.22 0.24 0.21 0.19 0.20 0.20 0.21 0.20 0.19 0.18 0.19 0.19 0.20 0.22 0.23 0.26 0.32 0.39 0.42 0.45 0.47 0.54 0.61 0.63 0.64 0.75 0.74 0.74 0.80 0.83 0.83 0.81 0.84
0.75 0.66 0.43 0.32 0.37 0.39 0.31 0.25 0.19 0.19 0.18 0.20 0.21 0.20 0.20 0.21 0.20 0.20 0.19 0.18 0.17 0.17 0.17 0.17 0.20 0.22 0.25 0.30 0.37 0.46 0.46 0.47 0.52 0.61 0.68 0.70 0.76 0.78 0.77 0.77 0.80 0.83 0.83 0.80
0.49 0.37 0.31 0.30 0.27 0.23 0.19 0.20 0.18 0.19 0.20 0.22 0.22 0.21 0.22 0.22 0.22 0.22 0.21 0.19 0.17 0.17 0.18 0.20 0.23 0.25 0.27 0.31 0.37 0.47 0.48 0.48 0.52 0.59 0.70 0.72 0.75 0.77 0.79 0.81 0.89 0.93 0.88 0.82
0.41 0.30 0.24 0.20 0.20 0.21 0.18 0.16 0.15 0.16 0.18 0.20 0.21 0.22 0.22 0.23 0.24 0.24 0.23 0.20 0.18 0.18 0.20 0.23 0.26 0.27 0.27 0.30 0.38 0.46 0.50 0.50 0.52 0.57 0.69 0.73 0.77 0.80 0.82 0.80 0.99 1.12 1.00 0.98
0.36 0.27 0.31 0.25 0.20 0.20 0.20 0.18 0.17 0.18 0.19 0.18 0.19 0.21 0.22 0.25 0.26 0.24 0.23 0.20 0.19 0.18 0.19 0.23 0.27 0.29 0.29 0.32 0.37 0.46 0.53 0.56 0.55 0.58 0.69 0.73 0.77 0.82 0.87 0.87 0.91 0.92 0.96 1.03
0.25 0.18 0.21 0.22 0.21 0.19 0.20 0.20 0.21 0.21 0.21 0.22 0.20 0.20 0.23 0.25 0.26 0.25 0.22 0.21 0.21 0.21 0.22 0.25 0.29 0.32 0.33 0.34 0.36 0.45 0.54 0.58 0.59 0.59 0.68 0.74 0.71 0.76 0.79 0.80 0.83 0.86 0.88 0.93
0.20 0.20 0.21 0.20 0.22 0.20 0.19 0.19 0.20 0.20 0.20 0.21 0.21 0.22 0.23 0.24 0.25 0.23 0.22 0.23 0.22 0.21 0.22 0.25 0.28 0.31 0.36 0.36 0.35 0.42 0.51 0.57 0.60 0.62 0.68 0.71 0.70 0.70 0.69 0.74 0.79 0.83 0.88 0.94
0.18 0.20 0.22 0.20 0.19 0.18 0.16 0.16 0.17 0.19 0.20 0.19 0.19 0.20 0.22 0.22 0.23 0.22 0.21 0.22 0.21 0.20 0.21 0.23 0.25 0.30 0.34 0.34 0.35 0.43 0.54 0.61 0.63 0.68 0.71 0.71 0.70 0.70 0.67 0.68 0.71 0.76 0.85 1.00
0.18 0.15 0.15 0.17 0.17 0.17 0.17 0.17 0.18 0.22 0.22 0.22 0.21 0.24 0.25 0.23 0.21 0.20 0.20 0.19 0.21 0.22 0.23 0.24 0.27 0.32 0.35 0.34 0.35 0.42 0.53 0.70 0.76 0.77 0.76 0.75 0.73 0.71 0.70 0.70 0.72 0.76 0.84 0.97
0.23 0.18 0.16 0.16 0.17 0.18 0.20 0.20 0.22 0.24 0.25 0.25 0.28 0.28 0.26 0.23 0.20 0.19 0.21 0.21 0.22 0.24 0.25 0.27 0.30 0.34 0.36 0.36 0.40 0.46 0.56 0.67 0.78 0.80 0.80 0.81 0.79 0.76 0.74 0.76 0.77 0.78 0.83 0.98
0.25 0.23 0.22 0.23 0.24 0.22 0.21 0.21 0.22 0.24 0.26 0.27 0.28 0.29 0.28 0.26 0.24 0.24 0.24 0.23 0.23 0.23 0.26 0.30 0.35 0.36 0.36 0.38 0.45 0.52 0.61 0.71 0.78 0.87 0.90 0.91 0.90 0.83 0.82 0.81 0.79 0.80 0.83 0.94
0.22 0.22 0.22 0.22 0.23 0.24 0.25 0.25 0.25 0.23 0.23 0.23 0.23 0.25 0.27 0.27 0.26 0.26 0.26 0.24 0.25 0.29 0.33 0.35 0.38 0.35 0.37 0.44 0.55 0.60 0.68 0.77 0.84 0.90 0.93 1.00 0.98 0.89 0.87 0.84 0.84 0.84 0.87 0.94
0.23 0.23 0.23 0.22 0.21 0.22 0.24 0.26 0.25 0.22 0.22 0.23 0.23 0.23 0.24 0.26 0.28 0.29 0.29 0.29 0.33 0.40 0.42 0.43 0.40 0.40 0.47 0.54 0.66 0.69 0.73 0.83 0.91 0.96 0.98 1.00 1.01 1.01 0.97 0.93 0.91 0.92 0.94 0.97
0.27 0.25 0.24 0.22 0.21 0.21 0.23 0.26 0.27 0.25 0.24 0.25 0.27 0.28 0.28 0.29 0.30 0.30 0.32 0.35 0.38 0.42 0.44 0.44 0.43 0.51 0.64 0.72 0.71 0.71 0.77 0.88 0.95 0.98 1.01 1.05 1.06 1.04 1.02 0.99 0.96 0.97 0.98 0.97
0.31 0.29 0.28 0.26 0.26 0.28 0.28 0.29 0.31 0.30 0.28 0.29 0.30 0.31 0.32 0.33 0.32 0.33 0.37 0.46 0.50 0.50 0.47 0.46 0.51 0.63 0.74 0.77 0.71 0.74 0.82 0.93 1.00 1.00 1.04 1.05 1.10 1.13 1.08 1.05 1.03 1.01 1.01 1.00
0.38 0.37 0.36 0.37 0.38 0.39 0.36 0.36 0.38 0.38 0.38 0.39 0.39 0.38 0.39 0.40 0.38 0.38 0.46 0.51 0.52 0.53 0.53 0.58 0.65 0.69 0.73 0.74 0.75 0.79 0.90 1.03 1.09 1.09 1.09 1.10 1.14 1.19 1.19 1.15 1.08 1.06 1.08 1.06
0.47 0.45 0.46 0.48 0.46 0.44 0.45 0.47 0.47 0.47 0.48 0.49 0.50 0.48 0.47 0.45 0.44 0.47 0.55 0.58 0.57 0.56 0.60 0.66 0.67 0.69 0.72 0.74 0.79 0.89 1.02 1.12 1.17 1.17 1.16 1.16 1.18 1.23 1.23 1.20 1.15 1.08 1.05 1.04
0.54 0.53 0.53 0.53 0.56 0.59 0.58 0.55 0.52 0.51 0.49 0.51 0.53 0.53 0.53 0.52 0.56 0.61 0.61 0.60 0.59 0.58 0.60 0.63 0.65 0.66 0.69 0.76 0.86 1.00 1.11 1.18 1.27 1.29 1.27 1.25 1.22 1.24 1.24 1.20 1.13 1.06 1.01 0.99
0.57 0.59 0.61 0.64 0.68 0.69 0.65 0.59 0.56 0.55 0.52 0.51 0.52 0.53 0.55 0.56 0.58 0.60 0.61 0.61 0.60 0.62 0.63 0.64 0.65 0.69 0.76 0.83 0.92 1.04 1.12 1.19 1.28 1.30 1.25 1.23 1.21 1.22 1.24 1.19 1.08 1.00 0.93 0.91
0.60 0.60 0.59 0.59 0.63 0.65 0.64 0.62 0.62 0.61 0.56 0.53 0.53 0.54 0.55 0.56 0.57 0.59 0.58 0.58 0.60 0.61 0.64 0.67 0.69 0.75 0.82 0.89 0.97 1.05 1.11 1.18 1.28 1.35 1.30 1.26 1.25 1.25 1.23 1.14 1.02 0.94 0.87 0.86